| time (UTC) | temp C | wind direction | speed KPH | gust KPH | rain 1hr cm | rain 24hr cm | rain mn cm | humidity % | barometer mb |
| 20260505041729 | 16 | 201 | 0.0 | 4.8 | 0.00 | 0.00 | 0.00 | 59 | 1012.1 |
| 20260505041657 | 15 | 201 | 1.6 | 4.8 | 0.00 | 0.00 | 0.00 | 59 | 1012.1 |
| 20260505041537 | 15 | 201 | 0.0 | 4.8 | 0.00 | 0.00 | 0.00 | 59 | 1012.1 |
| 20260505041441 | 15 | 198 | 0.0 | 4.8 | 0.00 | 0.00 | 0.00 | 59 | 1012.1 |
| 20260505041323 | 15 | 198 | 0.0 | 4.8 | 0.00 | 0.00 | 0.00 | 59 | 1012.0 |
| 20260505041233 | 15 | 198 | 0.0 | 4.8 | 0.00 | 0.00 | 0.00 | 59 | 1012.1 |
| 20260505041139 | 15 | 171 | 0.0 | 1.6 | 0.00 | 0.00 | 0.00 | 60 | 1012.1 |
| 20260505041022 | 15 | 171 | 0.0 | 3.2 | 0.00 | 0.00 | 0.00 | 60 | 1012.0 |
| 20260505040923 | 15 | 171 | 0.0 | 3.2 | 0.00 | 0.00 | 0.00 | 60 | 1012.1 |
| 20260505040841 | 15 | 171 | 0.0 | 3.2 | 0.00 | 0.00 | 0.00 | 60 | 1012.1 |
| 20260505040735 | 15 | 171 | 0.0 | 3.2 | 0.00 | 0.00 | 0.00 | 60 | 1012.1 |
| 20260505040621 | 15 | 171 | 0.0 | 3.2 | 0.00 | 0.00 | 0.00 | 60 | 1012.0 |
| 20260505040517 | 15 | 171 | 0.0 | 3.2 | 0.00 | 0.00 | 0.00 | 60 | 1012.0 |
| 20260505040437 | 15 | 171 | 0.0 | 4.8 | 0.00 | 0.00 | 0.00 | 60 | 1012.0 |
| 20260505040325 | 15 | 171 | 0.0 | 4.8 | 0.00 | 0.00 | 0.00 | 60 | 1012.0 |
| 20260505040244 | 16 | 171 | 1.6 | 4.8 | 0.00 | 0.00 | 0.00 | 59 | 1012.1 |
| 20260505040148 | 16 | 171 | 1.6 | 4.8 | 0.00 | 0.00 | 0.00 | 58 | 1012.0 |
| 20260505040115 | 16 | 171 | 0.0 | 4.8 | 0.00 | 0.00 | 0.00 | 57 | 1012.0 |
| 20260505035941 | 16 | 171 | 0.0 | 4.8 | 0.00 | 0.00 | 0.00 | 58 | 1012.1 |
| 20260505035819 | 16 | 169 | 0.0 | 4.8 | 0.00 | 0.00 | 0.00 | 58 | 1012.0 |
| 20260505035732 | 16 | 169 | 0.0 | 4.8 | 0.00 | 0.00 | 0.00 | 57 | 1012.0 |
| 20260505035628 | 16 | 169 | 0.0 | 6.4 | 0.00 | 0.00 | 0.00 | 57 | 1012.0 |
| 20260505035521 | 16 | 180 | 0.0 | 3.2 | 0.00 | 0.00 | 0.00 | 58 | 1012.0 |
| 20260505035424 | 16 | 180 | 0.0 | 3.2 | 0.00 | 0.00 | 0.00 | 58 | 1012.1 |
| 20260505035330 | 16 | 180 | 0.0 | 3.2 | 0.00 | 0.00 | 0.00 | 58 | 1012.1 |
| 20260505035214 | 16 | 180 | 0.0 | 3.2 | 0.00 | 0.00 | 0.00 | 58 | 1012.0 |
| 20260505035128 | 16 | 180 | 0.0 | 4.8 | 0.00 | 0.00 | 0.00 | 58 | 1012.0 |
| 20260505035041 | 16 | 180 | 0.0 | 4.8 | 0.00 | 0.00 | 0.00 | 58 | 1012.0 |
| 20260505034926 | 16 | 180 | 0.0 | 4.8 | 0.00 | 0.00 | 0.00 | 58 | 1012.1 |
| 20260505034843 | 16 | 177 | 0.0 | 4.8 | 0.00 | 0.00 | 0.00 | 59 | 1012.1 |
| 20260505034728 | 16 | 174 | 0.0 | 4.8 | 0.00 | 0.00 | 0.00 | 59 | 1012.0 |
| 20260505034619 | 16 | 174 | 0.0 | 4.8 | 0.00 | 0.00 | 0.00 | 59 | 1012.0 |
| 20260505034430 | 16 | 174 | 1.6 | 4.8 | 0.00 | 0.00 | 0.00 | 59 | 1012.0 |
| 20260505034338 | 16 | 174 | 1.6 | 4.8 | 0.00 | 0.00 | 0.00 | 58 | 1012.0 |
| 20260505034230 | 16 | 175 | 1.6 | 4.8 | 0.00 | 0.00 | 0.00 | 58 | 1012.0 |
| 20260505034120 | 16 | 160 | 1.6 | 6.4 | 0.00 | 0.00 | 0.00 | 58 | 1012.0 |
| 20260505034013 | 16 | 160 | 0.0 | 4.8 | 0.00 | 0.00 | 0.00 | 58 | 1012.0 |
| 20260505033925 | 16 | 160 | 0.0 | 4.8 | 0.00 | 0.00 | 0.00 | 58 | 1012.0 |
| 20260505033839 | 16 | 160 | 0.0 | 4.8 | 0.00 | 0.00 | 0.00 | 58 | 1012.0 |
| 20260505033713 | 16 | 160 | 0.0 | 4.8 | 0.00 | 0.00 | 0.00 | 58 | 1012.0 |
| 20260505033629 | 16 | 160 | 1.6 | 4.8 | 0.00 | 0.00 | 0.00 | 58 | 1012.0 |
| 20260505033523 | 16 | 160 | 1.6 | 6.4 | 0.00 | 0.00 | 0.00 | 58 | 1012.0 |
| 20260505033415 | 16 | 179 | 0.0 | 6.4 | 0.00 | 0.00 | 0.00 | 57 | 1012.0 |
| 20260505033317 | 16 | 168 | 0.0 | 6.4 | 0.00 | 0.00 | 0.00 | 58 | 1012.0 |
| 20260505033242 | 16 | 168 | 1.6 | 6.4 | 0.00 | 0.00 | 0.00 | 57 | 1012.0 |
| 20260505033145 | 16 | 168 | 0.0 | 6.4 | 0.00 | 0.00 | 0.00 | 57 | 1012.0 |
| 20260505032936 | 16 | 200 | 0.0 | 6.4 | 0.00 | 0.00 | 0.00 | 57 | 1012.0 |
| 20260505032823 | 16 | 200 | 1.6 | 6.4 | 0.00 | 0.00 | 0.00 | 57 | 1012.0 |
| 20260505032716 | 16 | 200 | 1.6 | 6.4 | 0.00 | 0.00 | 0.00 | 57 | 1012.0 |
| 20260505032635 | 16 | 196 | 0.0 | 6.4 | 0.00 | 0.00 | 0.00 | 57 | 1012.0 |
| 20260505032521 | 16 | 200 | 0.0 | 4.8 | 0.00 | 0.00 | 0.00 | 58 | 1012.0 |
| 20260505032418 | 16 | 200 | 1.6 | 4.8 | 0.00 | 0.00 | 0.00 | 57 | 1012.1 |
| 20260505032318 | 16 | 200 | 1.6 | 4.8 | 0.00 | 0.00 | 0.00 | 57 | 1012.0 |
| 20260505032220 | 16 | 200 | 0.0 | 4.8 | 0.00 | 0.00 | 0.00 | 58 | 1012.0 |
| 20260505032115 | 16 | 201 | 0.0 | 3.2 | 0.00 | 0.00 | 0.00 | 57 | 1012.1 |
| 20260505032019 | 16 | 201 | 0.0 | 3.2 | 0.00 | 0.00 | 0.00 | 57 | 1012.0 |
| 20260505031922 | 16 | 201 | 0.0 | 3.2 | 0.00 | 0.00 | 0.00 | 57 | 1012.0 |
| 20260505031831 | 16 | 201 | 0.0 | 3.2 | 0.00 | 0.00 | 0.00 | 57 | 1012.1 |
| 20260505031741 | 16 | 202 | 0.0 | 3.2 | 0.00 | 0.00 | 0.00 | 57 | 1012.1 |
| 20260505031641 | 16 | 199 | 0.0 | 3.2 | 0.00 | 0.00 | 0.00 | 58 | 1012.0 |
| 20260505031419 | 16 | 199 | 0.0 | 3.2 | 0.00 | 0.00 | 0.00 | 58 | 1012.1 |
| 20260505031343 | 16 | 178 | 0.0 | 3.2 | 0.00 | 0.00 | 0.00 | 58 | 1012.0 |
| 20260505031212 | 16 | 178 | 0.0 | 3.2 | 0.00 | 0.00 | 0.00 | 58 | 1012.0 |
| 20260505031121 | 16 | 178 | 0.0 | 3.2 | 0.00 | 0.00 | 0.00 | 59 | 1012.0 |
| 20260505031010 | 16 | 178 | 0.0 | 3.2 | 0.00 | 0.00 | 0.00 | 59 | 1012.0 |
| 20260505030923 | 16 | 178 | 0.0 | 3.2 | 0.00 | 0.00 | 0.00 | 59 | 1012.0 |
| 20260505030826 | 16 | 178 | 0.0 | 3.2 | 0.00 | 0.00 | 0.00 | 59 | 1012.0 |
| 20260505030740 | 16 | 167 | 0.0 | 3.2 | 0.00 | 0.00 | 0.00 | 60 | 1011.9 |
| 20260505030628 | 16 | 170 | 0.0 | 3.2 | 0.00 | 0.00 | 0.00 | 60 | 1012.0 |
| 20260505030506 | 16 | 170 | 0.0 | 3.2 | 0.00 | 0.00 | 0.00 | 60 | 1011.9 |
| 20260505030502 | 15 | 170 | 0.0 | 3.2 | 0.00 | 0.00 | 0.00 | 61 | 1011.9 |
| 20260505030326 | 15 | 170 | 0.0 | 3.2 | 0.00 | 0.00 | 0.00 | 61 | 1011.9 |
| 20260505030248 | 15 | 170 | 0.0 | 3.2 | 0.00 | 0.00 | 0.00 | 62 | 1011.9 |
| 20260505030126 | 15 | 170 | 0.0 | 3.2 | 0.00 | 0.00 | 0.00 | 62 | 1011.9 |
| 20260505025923 | 15 | 170 | 0.0 | 4.8 | 0.00 | 0.00 | 0.00 | 62 | 1011.9 |
| 20260505025827 | 15 | 170 | 0.0 | 4.8 | 0.00 | 0.00 | 0.00 | 62 | 1011.9 |
| 20260505025716 | 15 | 170 | 0.0 | 4.8 | 0.00 | 0.00 | 0.00 | 61 | 1011.9 |
| 20260505025616 | 15 | 170 | 0.0 | 4.8 | 0.00 | 0.00 | 0.00 | 61 | 1011.9 |
| 20260505025536 | 15 | 170 | 0.0 | 4.8 | 0.00 | 0.00 | 0.00 | 62 | 1011.9 |
| 20260505025415 | 15 | 170 | 1.6 | 4.8 | 0.00 | 0.00 | 0.00 | 61 | 1011.9 |
| 20260505025326 | 15 | 170 | 1.6 | 4.8 | 0.00 | 0.00 | 0.00 | 62 | 1011.9 |
| 20260505025242 | 15 | 170 | 1.6 | 6.4 | 0.00 | 0.00 | 0.00 | 61 | 1012.0 |
| 20260505025140 | 15 | 171 | 1.6 | 3.2 | 0.00 | 0.00 | 0.00 | 63 | 1011.9 |
| 20260505025028 | 15 | 171 | 1.6 | 3.2 | 0.00 | 0.00 | 0.00 | 62 | 1011.9 |
| 20260505024925 | 15 | 183 | 1.6 | 3.2 | 0.00 | 0.00 | 0.00 | 62 | 1011.9 |
| 20260505024827 | 15 | 178 | 0.0 | 3.2 | 0.00 | 0.00 | 0.00 | 62 | 1011.9 |
| 20260505024732 | 15 | 178 | 0.0 | 3.2 | 0.00 | 0.00 | 0.00 | 63 | 1011.9 |
| 20260505024704 | 15 | 197 | 0.0 | 3.2 | 0.00 | 0.00 | 0.00 | 63 | 1012.0 |
| 20260505024700 | 15 | 197 | 0.0 | 3.2 | 0.00 | 0.00 | 0.00 | 63 | 1012.0 |
| 20260505024436 | 15 | 197 | 0.0 | 3.2 | 0.00 | 0.00 | 0.00 | 63 | 1012.0 |
| 20260505024328 | 15 | 197 | 0.0 | 3.2 | 0.00 | 0.00 | 0.00 | 63 | 1012.0 |
| 20260505024235 | 15 | 197 | 0.0 | 3.2 | 0.00 | 0.00 | 0.00 | 63 | 1012.0 |
| 20260505024114 | 15 | 197 | 0.0 | 3.2 | 0.00 | 0.00 | 0.00 | 63 | 1012.0 |
| 20260505024013 | 14 | 197 | 1.6 | 3.2 | 0.00 | 0.00 | 0.00 | 63 | 1012.0 |
| 20260505023917 | 14 | 197 | 1.6 | 3.2 | 0.00 | 0.00 | 0.00 | 63 | 1012.0 |
| 20260505023820 | 15 | 197 | 1.6 | 3.2 | 0.00 | 0.00 | 0.00 | 63 | 1012.0 |
| 20260505023738 | 15 | 197 | 1.6 | 3.2 | 0.00 | 0.00 | 0.00 | 63 | 1012.0 |
| 20260505023631 | 15 | 197 | 0.0 | 3.2 | 0.00 | 0.00 | 0.00 | 63 | 1012.0 |
| 20260505023526 | 14 | 197 | 0.0 | 3.2 | 0.00 | 0.00 | 0.00 | 63 | 1012.1 |
| 20260505023442 | 14 | 197 | 1.6 | 3.2 | 0.00 | 0.00 | 0.00 | 63 | 1012.1 |
| 20260505023333 | 14 | 197 | 1.6 | 3.2 | 0.00 | 0.00 | 0.00 | 63 | 1012.1 |
| 20260505023244 | 15 | 197 | 0.0 | 3.2 | 0.00 | 0.00 | 0.00 | 63 | 1012.0 |
| 20260505023158 | 15 | 197 | 0.0 | 3.2 | 0.00 | 0.00 | 0.00 | 62 | 1011.9 |
| 20260505022921 | 15 | 197 | 1.6 | 3.2 | 0.00 | 0.00 | 0.00 | 62 | 1011.9 |
| 20260505022829 | 15 | 197 | 0.0 | 3.2 | 0.00 | 0.00 | 0.00 | 61 | 1011.9 |
| 20260505022727 | 15 | 197 | 0.0 | 3.2 | 0.00 | 0.00 | 0.00 | 61 | 1012.0 |
| 20260505022622 | 15 | 197 | 0.0 | 3.2 | 0.00 | 0.00 | 0.00 | 60 | 1011.9 |
| 20260505022544 | 15 | 197 | 0.0 | 3.2 | 0.00 | 0.00 | 0.00 | 60 | 1011.9 |
| 20260505022418 | 15 | 197 | 0.0 | 3.2 | 0.00 | 0.00 | 0.00 | 59 | 1011.9 |
| 20260505022314 | 15 | 197 | 0.0 | 3.2 | 0.00 | 0.00 | 0.00 | 59 | 1011.9 |
| 20260505022227 | 15 | 198 | 0.0 | 1.6 | 0.00 | 0.00 | 0.00 | 60 | 1011.9 |
| 20260505022136 | 15 | 198 | 0.0 | 1.6 | 0.00 | 0.00 | 0.00 | 60 | 1012.0 |
| 20260505022016 | 15 | 198 | 0.0 | 3.2 | 0.00 | 0.00 | 0.00 | 60 | 1012.0 |
| 20260505021937 | 15 | 198 | 0.0 | 3.2 | 0.00 | 0.00 | 0.00 | 60 | 1012.0 |
| 20260505021843 | 15 | 198 | 0.0 | 3.2 | 0.00 | 0.00 | 0.00 | 61 | 1012.0 |
| 20260505021752 | 15 | 198 | 0.0 | 3.2 | 0.00 | 0.00 | 0.00 | 61 | 1012.0 |
| 20260505021709 | 15 | 198 | 0.0 | 3.2 | 0.00 | 0.00 | 0.00 | 60 | 1012.0 |
| 20260505021706 | 15 | 198 | 0.0 | 3.2 | 0.00 | 0.00 | 0.00 | 60 | 1011.9 |
| 20260505021440 | 15 | 198 | 0.0 | 3.2 | 0.00 | 0.00 | 0.00 | 61 | 1011.9 |
| 20260505021316 | 15 | 198 | 0.0 | 3.2 | 0.00 | 0.00 | 0.00 | 61 | 1011.9 |
| 20260505021216 | 15 | 198 | 0.0 | 3.2 | 0.00 | 0.00 | 0.00 | 60 | 1011.8 |
| 20260505021136 | 15 | 198 | 0.0 | 3.2 | 0.00 | 0.00 | 0.00 | 61 | 1011.8 |
| 20260505021020 | 15 | 198 | 0.0 | 3.2 | 0.00 | 0.00 | 0.00 | 61 | 1011.8 |
| 20260505020940 | 15 | 198 | 0.0 | 3.2 | 0.00 | 0.00 | 0.00 | 60 | 1011.8 |
| 20260505020814 | 15 | 198 | 0.0 | 3.2 | 0.00 | 0.00 | 0.00 | 60 | 1011.8 |
| 20260505020716 | 15 | 198 | 0.0 | 3.2 | 0.00 | 0.00 | 0.00 | 60 | 1011.8 |
| 20260505020620 | 15 | 198 | 0.0 | 3.2 | 0.00 | 0.00 | 0.00 | 60 | 1011.8 |
| 20260505020513 | 15 | 198 | 0.0 | 3.2 | 0.00 | 0.00 | 0.00 | 59 | 1011.8 |
| 20260505020413 | 15 | 198 | 0.0 | 3.2 | 0.00 | 0.00 | 0.00 | 60 | 1011.8 |
| 20260505020318 | 15 | 198 | 0.0 | 3.2 | 0.00 | 0.00 | 0.00 | 60 | 1011.8 |
| 20260505020250 | 15 | 198 | 0.0 | 3.2 | 0.00 | 0.00 | 0.00 | 60 | 1011.8 |
| 20260505020247 | 15 | 198 | 0.0 | 3.2 | 0.00 | 0.00 | 0.00 | 60 | 1011.8 |
| 20260505015930 | 15 | 198 | 0.0 | 3.2 | 0.00 | 0.00 | 0.00 | 59 | 1011.9 |
| 20260505015838 | 15 | 198 | 0.0 | 3.2 | 0.00 | 0.00 | 0.00 | 59 | 1011.9 |
| 20260505015728 | 15 | 198 | 0.0 | 3.2 | 0.00 | 0.00 | 0.00 | 59 | 1011.8 |
| 20260505015636 | 16 | 198 | 0.0 | 3.2 | 0.00 | 0.00 | 0.00 | 58 | 1011.8 |
| 20260505015540 | 16 | 198 | 0.0 | 3.2 | 0.00 | 0.00 | 0.00 | 58 | 1011.9 |
| 20260505015419 | 16 | 198 | 0.0 | 3.2 | 0.00 | 0.00 | 0.00 | 58 | 1011.9 |
| 20260505015337 | 16 | 198 | 0.0 | 3.2 | 0.00 | 0.00 | 0.00 | 58 | 1011.9 |
| 20260505015222 | 16 | 198 | 0.0 | 3.2 | 0.00 | 0.00 | 0.00 | 58 | 1011.8 |
| 20260505015118 | 16 | 198 | 0.0 | 3.2 | 0.00 | 0.00 | 0.00 | 57 | 1011.9 |
| 20260505015021 | 16 | 198 | 1.6 | 3.2 | 0.00 | 0.00 | 0.00 | 57 | 1011.8 |
| 20260505014936 | 16 | 198 | 1.6 | 3.2 | 0.00 | 0.00 | 0.00 | 57 | 1011.8 |
| 20260505014818 | 16 | 198 | 1.6 | 3.2 | 0.00 | 0.00 | 0.00 | 57 | 1011.9 |
| 20260505014727 | 16 | 198 | 0.0 | 3.2 | 0.00 | 0.00 | 0.00 | 57 | 1011.8 |
| 20260505014658 | 16 | 198 | 0.0 | 3.2 | 0.00 | 0.00 | 0.00 | 58 | 1011.8 |
| 20260505014613 | 16 | 198 | 0.0 | 3.2 | 0.00 | 0.00 | 0.00 | 57 | 1011.9 |
| 20260505014437 | 16 | 198 | 0.0 | 3.2 | 0.00 | 0.00 | 0.00 | 57 | 1011.8 |
| 20260505014337 | 16 | 198 | 0.0 | 3.2 | 0.00 | 0.00 | 0.00 | 57 | 1011.8 |
| 20260505014240 | 16 | 198 | 0.0 | 3.2 | 0.00 | 0.00 | 0.00 | 57 | 1011.7 |
| 20260505014119 | 16 | 198 | 0.0 | 3.2 | 0.00 | 0.00 | 0.00 | 57 | 1011.8 |
| 20260505014033 | 16 | 198 | 0.0 | 3.2 | 0.00 | 0.00 | 0.00 | 57 | 1011.8 |
| 20260505013915 | 16 | 198 | 0.0 | 3.2 | 0.00 | 0.00 | 0.00 | 57 | 1011.8 |
| 20260505013825 | 16 | 198 | 0.0 | 3.2 | 0.00 | 0.00 | 0.00 | 57 | 1011.9 |
| 20260505013722 | 16 | 198 | 0.0 | 3.2 | 0.00 | 0.00 | 0.00 | 57 | 1011.8 |
| 20260505013618 | 16 | 198 | 1.6 | 3.2 | 0.00 | 0.00 | 0.00 | 57 | 1011.9 |
| 20260505013517 | 16 | 198 | 1.6 | 3.2 | 0.00 | 0.00 | 0.00 | 57 | 1011.9 |
| 20260505013434 | 16 | 198 | 1.6 | 3.2 | 0.00 | 0.00 | 0.00 | 57 | 1011.9 |
| 20260505013344 | 16 | 198 | 0.0 | 3.2 | 0.00 | 0.00 | 0.00 | 56 | 1011.9 |
| 20260505013231 | 16 | 198 | 0.0 | 3.2 | 0.00 | 0.00 | 0.00 | 56 | 1011.9 |
| 20260505013149 | 16 | 198 | 0.0 | 3.2 | 0.00 | 0.00 | 0.00 | 55 | 1011.9 |
| 20260505012919 | 16 | 198 | 0.0 | 3.2 | 0.00 | 0.00 | 0.00 | 54 | 1011.9 |
| 20260505012825 | 16 | 198 | 0.0 | 3.2 | 0.00 | 0.00 | 0.00 | 55 | 1011.9 |
| 20260505012720 | 16 | 198 | 0.0 | 3.2 | 0.00 | 0.00 | 0.00 | 55 | 1011.9 |
| 20260505012632 | 16 | 198 | 0.0 | 3.2 | 0.00 | 0.00 | 0.00 | 55 | 1011.9 |
| 20260505012535 | 16 | 198 | 0.0 | 3.2 | 0.00 | 0.00 | 0.00 | 55 | 1011.8 |
| 20260505012413 | 16 | 198 | 0.0 | 3.2 | 0.00 | 0.00 | 0.00 | 55 | 1011.8 |
| 20260505012329 | 16 | 198 | 0.0 | 3.2 | 0.00 | 0.00 | 0.00 | 55 | 1011.8 |
| 20260505012245 | 16 | 198 | 0.0 | 3.2 | 0.00 | 0.00 | 0.00 | 56 | 1011.8 |
| 20260505012140 | 16 | 198 | 0.0 | 3.2 | 0.00 | 0.00 | 0.00 | 57 | 1011.7 |
| 20260505012023 | 16 | 198 | 0.0 | 3.2 | 0.00 | 0.00 | 0.00 | 57 | 1011.7 |
| 20260505011922 | 16 | 198 | 0.0 | 3.2 | 0.00 | 0.00 | 0.00 | 57 | 1011.8 |
| 20260505011836 | 16 | 198 | 0.0 | 3.2 | 0.00 | 0.00 | 0.00 | 57 | 1011.8 |
| 20260505011751 | 16 | 198 | 1.6 | 3.2 | 0.00 | 0.00 | 0.00 | 57 | 1011.7 |
| 20260505011653 | 16 | 198 | 1.6 | 3.2 | 0.00 | 0.00 | 0.00 | 57 | 1011.7 |
| 20260505011413 | 16 | 198 | 1.6 | 3.2 | 0.00 | 0.00 | 0.00 | 57 | 1011.7 |
| 20260505011316 | 16 | 198 | 1.6 | 3.2 | 0.00 | 0.00 | 0.00 | 57 | 1011.6 |
| 20260505011234 | 16 | 198 | 1.6 | 3.2 | 0.00 | 0.00 | 0.00 | 57 | 1011.5 |
| 20260505011135 | 16 | 198 | 1.6 | 3.2 | 0.00 | 0.00 | 0.00 | 57 | 1011.6 |
| 20260505011014 | 16 | 198 | 1.6 | 3.2 | 0.00 | 0.00 | 0.00 | 57 | 1011.5 |
| 20260505010923 | 16 | 198 | 1.6 | 3.2 | 0.00 | 0.00 | 0.00 | 56 | 1011.5 |
| 20260505010832 | 16 | 198 | 1.6 | 3.2 | 0.00 | 0.00 | 0.00 | 56 | 1011.5 |
| 20260505010729 | 16 | 198 | 1.6 | 3.2 | 0.00 | 0.00 | 0.00 | 56 | 1011.4 |
| 20260505010633 | 16 | 198 | 1.6 | 3.2 | 0.00 | 0.00 | 0.00 | 55 | 1011.5 |
| 20260505010539 | 16 | 198 | 0.0 | 3.2 | 0.00 | 0.00 | 0.00 | 56 | 1011.5 |
| 20260505010415 | 16 | 198 | 0.0 | 3.2 | 0.00 | 0.00 | 0.00 | 55 | 1011.5 |
| 20260505010319 | 16 | 198 | 0.0 | 3.2 | 0.00 | 0.00 | 0.00 | 54 | 1011.5 |
| 20260505010257 | 16 | 198 | 0.0 | 3.2 | 0.00 | 0.00 | 0.00 | 55 | 1011.6 |
| 20260505010137 | 16 | 198 | 0.0 | 3.2 | 0.00 | 0.00 | 0.00 | 56 | 1011.5 |
| 20260505005915 | 16 | 198 | 0.0 | 3.2 | 0.00 | 0.00 | 0.00 | 56 | 1011.5 |
| 20260505005827 | 16 | 198 | 0.0 | 3.2 | 0.00 | 0.00 | 0.00 | 56 | 1011.5 |
| 20260505005736 | 16 | 198 | 0.0 | 3.2 | 0.00 | 0.00 | 0.00 | 56 | 1011.6 |
| 20260505005619 | 16 | 198 | 0.0 | 3.2 | 0.00 | 0.00 | 0.00 | 56 | 1011.5 |
| 20260505005521 | 16 | 198 | 0.0 | 3.2 | 0.00 | 0.00 | 0.00 | 56 | 1011.6 |
| 20260505005416 | 16 | 198 | 0.0 | 3.2 | 0.00 | 0.00 | 0.00 | 55 | 1011.5 |
| 20260505005317 | 17 | 198 | 0.0 | 3.2 | 0.00 | 0.00 | 0.00 | 55 | 1011.5 |
| 20260505005243 | 17 | 198 | 0.0 | 3.2 | 0.00 | 0.00 | 0.00 | 55 | 1011.5 |
| 20260505005119 | 17 | 198 | 0.0 | 3.2 | 0.00 | 0.00 | 0.00 | 55 | 1011.5 |
| 20260505005015 | 17 | 198 | 0.0 | 3.2 | 0.00 | 0.00 | 0.00 | 55 | 1011.5 |
| 20260505004921 | 17 | 198 | 0.0 | 3.2 | 0.00 | 0.00 | 0.00 | 54 | 1011.5 |
| 20260505004814 | 17 | 198 | 0.0 | 3.2 | 0.00 | 0.00 | 0.00 | 54 | 1011.5 |
| 20260505004741 | 17 | 198 | 1.6 | 3.2 | 0.00 | 0.00 | 0.00 | 54 | 1011.4 |
| 20260505004646 | 17 | 198 | 0.0 | 3.2 | 0.00 | 0.00 | 0.00 | 53 | 1011.5 |
| 20260505004422 | 17 | 198 | 1.6 | 3.2 | 0.00 | 0.00 | 0.00 | 53 | 1011.5 |
| 20260505004322 | 17 | 198 | 1.6 | 3.2 | 0.00 | 0.00 | 0.00 | 53 | 1011.6 |
| 20260505004241 | 17 | 198 | 1.6 | 3.2 | 0.00 | 0.00 | 0.00 | 53 | 1011.4 |
| 20260505004119 | 17 | 198 | 1.6 | 3.2 | 0.00 | 0.00 | 0.00 | 53 | 1011.5 |
| 20260505004034 | 17 | 198 | 1.6 | 3.2 | 0.00 | 0.00 | 0.00 | 52 | 1011.5 |
| 20260505003934 | 17 | 198 | 1.6 | 3.2 | 0.00 | 0.00 | 0.00 | 52 | 1011.5 |
| 20260505003805 | 17 | 198 | 0.0 | 3.2 | 0.00 | 0.00 | 0.00 | 53 | 1011.6 |
| 20260505003802 | 17 | 198 | 0.0 | 3.2 | 0.00 | 0.00 | 0.00 | 52 | 1011.5 |
| 20260505003635 | 17 | 198 | 0.0 | 3.2 | 0.00 | 0.00 | 0.00 | 52 | 1011.6 |
| 20260505003535 | 17 | 198 | 0.0 | 3.2 | 0.00 | 0.00 | 0.00 | 52 | 1011.6 |
| 20260505003417 | 17 | 198 | 0.0 | 3.2 | 0.00 | 0.00 | 0.00 | 51 | 1011.5 |
| 20260505003328 | 17 | 198 | 0.0 | 3.2 | 0.00 | 0.00 | 0.00 | 51 | 1011.6 |
| 20260505003239 | 18 | 198 | 0.0 | 3.2 | 0.00 | 0.00 | 0.00 | 50 | 1011.5 |
| 20260505003141 | 18 | 198 | 0.0 | 3.2 | 0.00 | 0.00 | 0.00 | 49 | 1011.4 |
| 20260505002913 | 18 | 198 | 0.0 | 3.2 | 0.00 | 0.00 | 0.00 | 50 | 1011.4 |
| 20260505002825 | 18 | 198 | 0.0 | 3.2 | 0.00 | 0.00 | 0.00 | 48 | 1011.4 |
| 20260505002724 | 18 | 198 | 0.0 | 3.2 | 0.00 | 0.00 | 0.00 | 49 | 1011.3 |
| 20260505002633 | 18 | 198 | 0.0 | 3.2 | 0.00 | 0.00 | 0.00 | 50 | 1011.3 |
| 20260505002522 | 18 | 198 | 0.0 | 4.8 | 0.00 | 0.00 | 0.00 | 50 | 1011.4 |
| 20260505002427 | 18 | 198 | 0.0 | 4.8 | 0.00 | 0.00 | 0.00 | 50 | 1011.4 |
| 20260505002325 | 18 | 198 | 0.0 | 4.8 | 0.00 | 0.00 | 0.00 | 50 | 1011.2 |
| 20260505002210 | 18 | 198 | 0.0 | 4.8 | 0.00 | 0.00 | 0.00 | 49 | 1011.3 |
| 20260505002131 | 18 | 198 | 0.0 | 4.8 | 0.00 | 0.00 | 0.00 | 48 | 1011.3 |
| 20260505002028 | 18 | 198 | 0.0 | 4.8 | 0.00 | 0.00 | 0.00 | 49 | 1011.3 |
| 20260505001918 | 18 | 198 | 0.0 | 4.8 | 0.00 | 0.00 | 0.00 | 49 | 1011.4 |
| 20260505001823 | 18 | 198 | 1.6 | 4.8 | 0.00 | 0.00 | 0.00 | 49 | 1011.5 |
| 20260505001724 | 18 | 198 | 1.6 | 4.8 | 0.00 | 0.00 | 0.00 | 48 | 1011.5 |
| 20260505001709 | 18 | 203 | 0.0 | 3.2 | 0.00 | 0.00 | 0.00 | 48 | 1011.4 |
| 20260505001618 | 18 | 208 | 0.0 | 3.2 | 0.00 | 0.00 | 0.00 | 48 | 1011.5 |
| 20260505001445 | 18 | 202 | 0.0 | 3.2 | 0.00 | 0.00 | 0.00 | 48 | 1011.5 |
| 20260505001323 | 18 | 202 | 0.0 | 3.2 | 0.00 | 0.00 | 0.00 | 48 | 1011.5 |
| 20260505001226 | 18 | 202 | 0.0 | 3.2 | 0.00 | 0.00 | 0.00 | 48 | 1011.5 |
| 20260505001128 | 18 | 202 | 0.0 | 3.2 | 0.00 | 0.00 | 0.00 | 48 | 1011.4 |
| 20260505001034 | 18 | 202 | 0.0 | 3.2 | 0.00 | 0.00 | 0.00 | 47 | 1011.4 |
| 20260505000934 | 18 | 202 | 0.0 | 1.6 | 0.00 | 0.00 | 0.00 | 47 | 1011.4 |
| 20260505000832 | 18 | 202 | 0.0 | 1.6 | 0.00 | 0.00 | 0.00 | 47 | 1011.4 |
| 20260505000728 | 18 | 202 | 0.0 | 1.6 | 0.00 | 0.00 | 0.00 | 47 | 1011.5 |
| 20260505000624 | 19 | 202 | 0.0 | 1.6 | 0.00 | 0.00 | 0.00 | 47 | 1011.4 |
| 20260505000544 | 19 | 202 | 0.0 | 1.6 | 0.00 | 0.00 | 0.00 | 46 | 1011.5 |
| 20260505000441 | 19 | 202 | 0.0 | 1.6 | 0.00 | 0.00 | 0.00 | 46 | 1011.5 |
| 20260505000317 | 19 | 202 | 0.0 | 1.6 | 0.00 | 0.00 | 0.00 | 46 | 1011.4 |
| 20260505000245 | 19 | 202 | 0.0 | 3.2 | 0.00 | 0.00 | 0.00 | 45 | 1011.4 |
| 20260505000223 | 19 | 202 | 0.0 | 3.2 | 0.00 | 0.00 | 0.00 | 45 | 1011.4 |
| 20260505000111 | 20 | 202 | 0.0 | 3.2 | 0.00 | 0.00 | 0.00 | 45 | 1011.4 |
| 20260504235938 | 20 | 202 | 0.0 | 3.2 | 0.00 | 0.00 | 0.00 | 44 | 1011.4 |
| 20260504235835 | 20 | 202 | 0.0 | 3.2 | 0.00 | 0.00 | 0.00 | 44 | 1011.3 |
| 20260504235736 | 20 | 202 | 0.0 | 3.2 | 0.00 | 0.00 | 0.00 | 44 | 1011.3 |
| 20260504235615 | 20 | 202 | 0.0 | 3.2 | 0.00 | 0.00 | 0.00 | 43 | 1011.3 |
| 20260504235535 | 20 | 202 | 0.0 | 3.2 | 0.00 | 0.00 | 0.00 | 43 | 1011.4 |
| 20260504235430 | 20 | 202 | 1.6 | 3.2 | 0.00 | 0.00 | 0.00 | 43 | 1011.3 |
| 20260504235317 | 20 | 202 | 0.0 | 3.2 | 0.00 | 0.00 | 0.00 | 44 | 1011.3 |
| 20260504235217 | 20 | 196 | 0.0 | 4.8 | 0.00 | 0.00 | 0.00 | 44 | 1011.3 |
| 20260504235124 | 20 | 196 | 0.0 | 4.8 | 0.00 | 0.00 | 0.00 | 43 | 1011.3 |
| 20260504235039 | 20 | 196 | 0.0 | 4.8 | 0.00 | 0.00 | 0.00 | 43 | 1011.3 |
| 20260504234941 | 20 | 196 | 0.0 | 4.8 | 0.00 | 0.00 | 0.00 | 43 | 1011.3 |
| 20260504234842 | 20 | 196 | 0.0 | 4.8 | 0.00 | 0.00 | 0.00 | 42 | 1011.3 |
| 20260504234740 | 21 | 196 | 0.0 | 4.8 | 0.00 | 0.00 | 0.00 | 42 | 1011.3 |
| 20260504234646 | 21 | 196 | 1.6 | 4.8 | 0.00 | 0.00 | 0.00 | 41 | 1011.3 |
| 20260504234425 | 21 | 196 | 1.6 | 4.8 | 0.00 | 0.00 | 0.00 | 41 | 1011.4 |
| 20260504234323 | 21 | 186 | 1.6 | 4.8 | 0.00 | 0.00 | 0.00 | 40 | 1011.3 |
| 20260504234242 | 21 | 186 | 1.6 | 4.8 | 0.00 | 0.00 | 0.00 | 40 | 1011.3 |
| 20260504234138 | 21 | 186 | 1.6 | 8.0 | 0.00 | 0.00 | 0.00 | 40 | 1011.3 |
| 20260504234019 | 21 | 188 | 1.6 | 8.0 | 0.00 | 0.00 | 0.00 | 40 | 1011.4 |
| 20260504233921 | 21 | 184 | 1.6 | 8.0 | 0.00 | 0.00 | 0.00 | 40 | 1011.3 |
| 20260504233820 | 21 | 144 | 1.6 | 8.0 | 0.00 | 0.00 | 0.00 | 41 | 1011.3 |
| 20260504233742 | 21 | 151 | 1.6 | 8.0 | 0.00 | 0.00 | 0.00 | 40 | 1011.3 |
| 20260504233614 | 21 | 186 | 0.0 | 8.0 | 0.00 | 0.00 | 0.00 | 39 | 1011.3 |
| 20260504233539 | 21 | 223 | 1.6 | 9.7 | 0.00 | 0.00 | 0.00 | 39 | 1011.3 |
| 20260504233429 | 21 | 223 | 1.6 | 9.7 | 0.00 | 0.00 | 0.00 | 39 | 1011.3 |
| 20260504233316 | 21 | 195 | 1.6 | 9.7 | 0.00 | 0.00 | 0.00 | 39 | 1011.3 |
| 20260504233231 | 21 | 193 | 1.6 | 9.7 | 0.00 | 0.00 | 0.00 | 39 | 1011.2 |
| 20260504233225 | 21 | 193 | 1.6 | 9.7 | 0.00 | 0.00 | 0.00 | 39 | 1011.1 |
| 20260504233056 | 21 | 155 | 3.2 | 9.7 | 0.00 | 0.00 | 0.00 | 39 | 1011.2 |
| 20260504232925 | 21 | 179 | 3.2 | 9.7 | 0.00 | 0.00 | 0.00 | 38 | 1011.1 |
| 20260504232833 | 21 | 193 | 1.6 | 9.7 | 0.00 | 0.00 | 0.00 | 39 | 1011.2 |
| 20260504232720 | 22 | 178 | 1.6 | 9.7 | 0.00 | 0.00 | 0.00 | 39 | 1011.2 |
| 20260504232642 | 22 | 211 | 1.6 | 8.0 | 0.00 | 0.00 | 0.00 | 39 | 1011.2 |
| 20260504232514 | 22 | 211 | 3.2 | 8.0 | 0.00 | 0.00 | 0.00 | 39 | 1011.1 |
| 20260504232511 | 22 | 155 | 3.2 | 8.0 | 0.00 | 0.00 | 0.00 | 38 | 1011.1 |
| 20260504232332 | 22 | 153 | 1.6 | 9.7 | 0.00 | 0.00 | 0.00 | 38 | 1011.1 |
| 20260504232236 | 22 | 155 | 1.6 | 14.5 | 0.00 | 0.00 | 0.00 | 38 | 1011.1 |
| 20260504232118 | 22 | 156 | 1.6 | 14.5 | 0.00 | 0.00 | 0.00 | 38 | 1011.2 |
| 20260504232035 | 22 | 171 | 3.2 | 14.5 | 0.00 | 0.00 | 0.00 | 37 | 1011.1 |
| 20260504231921 | 22 | 180 | 3.2 | 14.5 | 0.00 | 0.00 | 0.00 | 37 | 1011.2 |
| 20260504231835 | 22 | 180 | 3.2 | 14.5 | 0.00 | 0.00 | 0.00 | 38 | 1011.1 |
| 20260504231723 | 22 | 205 | 3.2 | 14.5 | 0.00 | 0.00 | 0.00 | 37 | 1011.2 |
| 20260504231708 | 22 | 157 | 4.8 | 14.5 | 0.00 | 0.00 | 0.00 | 37 | 1011.2 |
| 20260504231634 | 22 | 217 | 6.4 | 14.5 | 0.00 | 0.00 | 0.00 | 37 | 1011.1 |
| 20260504231439 | 22 | 227 | 6.4 | 14.5 | 0.00 | 0.00 | 0.00 | 37 | 1011.2 |
| 20260504231337 | 22 | 144 | 3.2 | 11.3 | 0.00 | 0.00 | 0.00 | 37 | 1011.2 |
| 20260504231218 | 22 | 196 | 1.6 | 9.7 | 0.00 | 0.00 | 0.00 | 38 | 1011.3 |
| 20260504231131 | 22 | 194 | 1.6 | 11.3 | 0.00 | 0.00 | 0.00 | 37 | 1011.2 |
| 20260504231032 | 22 | 194 | 3.2 | 11.3 | 0.00 | 0.00 | 0.00 | 37 | 1011.2 |
| 20260504230941 | 22 | 246 | 1.6 | 11.3 | 0.00 | 0.00 | 0.00 | 37 | 1011.3 |
| 20260504230820 | 22 | 194 | 1.6 | 11.3 | 0.00 | 0.00 | 0.00 | 37 | 1011.2 |
| 20260504230742 | 22 | 157 | 3.2 | 11.3 | 0.00 | 0.00 | 0.00 | 36 | 1011.3 |
| 20260504230616 | 22 | 238 | 3.2 | 12.9 | 0.00 | 0.00 | 0.00 | 37 | 1011.2 |
| 20260504230557 | 22 | 225 | 4.8 | 14.5 | 0.00 | 0.00 | 0.00 | 36 | 1011.2 |
| 20260504230433 | 22 | 157 | 6.4 | 14.5 | 0.00 | 0.00 | 0.00 | 37 | 1011.2 |
| 20260504230329 | 22 | 211 | 4.8 | 24.1 | 0.00 | 0.00 | 0.00 | 36 | 1011.2 |
| 20260504230234 | 22 | 254 | 3.2 | 24.1 | 0.00 | 0.00 | 0.00 | 36 | 1011.2 |
| 20260504230210 | 22 | 226 | 3.2 | 24.1 | 0.00 | 0.00 | 0.00 | 36 | 1011.2 |
| 20260504225934 | 22 | 180 | 4.8 | 24.1 | 0.00 | 0.00 | 0.00 | 37 | 1011.2 |
| 20260504225833 | 22 | 222 | 6.4 | 24.1 | 0.00 | 0.00 | 0.00 | 36 | 1011.1 |
| 20260504225717 | 22 | 157 | 4.8 | 24.1 | 0.00 | 0.00 | 0.00 | 37 | 1011.2 |
| 20260504225616 | 22 | 126 | 8.0 | 24.1 | 0.00 | 0.00 | 0.00 | 36 | 1011.2 |
| 20260504225556 | 22 | 123 | 6.4 | 24.1 | 0.00 | 0.00 | 0.00 | 36 | 1011.1 |
| 20260504225433 | 22 | 183 | 3.2 | 9.7 | 0.00 | 0.00 | 0.00 | 37 | 1011.2 |
| 20260504225315 | 22 | 212 | 1.6 | 11.3 | 0.00 | 0.00 | 0.00 | 36 | 1011.2 |
| 20260504225219 | 22 | 178 | 3.2 | 11.3 | 0.00 | 0.00 | 0.00 | 36 | 1011.2 |
| 20260504225113 | 22 | 194 | 4.8 | 11.3 | 0.00 | 0.00 | 0.00 | 36 | 1011.2 |
| 20260504225034 | 22 | 193 | 4.8 | 11.3 | 0.00 | 0.00 | 0.00 | 36 | 1011.2 |
| 20260504224941 | 22 | 166 | 4.8 | 9.7 | 0.00 | 0.00 | 0.00 | 36 | 1011.2 |
| 20260504224828 | 22 | 228 | 3.2 | 12.9 | 0.00 | 0.00 | 0.00 | 37 | 1011.2 |
| 20260504224730 | 22 | 181 | 3.2 | 12.9 | 0.00 | 0.00 | 0.00 | 36 | 1011.3 |
| 20260504224706 | 22 | 202 | 3.2 | 12.9 | 0.00 | 0.00 | 0.00 | 36 | 1011.3 |
| 20260504224620 | 22 | 171 | 1.6 | 12.9 | 0.00 | 0.00 | 0.00 | 36 | 1011.3 |
| 20260504224437 | 22 | 225 | 3.2 | 12.9 | 0.00 | 0.00 | 0.00 | 36 | 1011.3 |
| 20260504224338 | 22 | 175 | 4.8 | 14.5 | 0.00 | 0.00 | 0.00 | 36 | 1011.4 |
| 20260504224232 | 22 | 129 | 4.8 | 14.5 | 0.00 | 0.00 | 0.00 | 35 | 1011.3 |
| 20260504224115 | 22 | 188 | 4.8 | 14.5 | 0.00 | 0.00 | 0.00 | 35 | 1011.5 |
| 20260504224038 | 22 | 204 | 4.8 | 14.5 | 0.00 | 0.00 | 0.00 | 35 | 1011.4 |
| 20260504223934 | 22 | 200 | 4.8 | 14.5 | 0.00 | 0.00 | 0.00 | 36 | 1011.3 |
| 20260504223840 | 22 | 234 | 3.2 | 14.5 | 0.00 | 0.00 | 0.00 | 35 | 1011.3 |
| 20260504223718 | 23 | 236 | 1.6 | 14.5 | 0.00 | 0.00 | 0.00 | 35 | 1011.3 |
| 20260504223635 | 23 | 236 | 4.8 | 14.5 | 0.00 | 0.00 | 0.00 | 35 | 1011.3 |
| 20260504223538 | 23 | 217 | 4.8 | 14.5 | 0.00 | 0.00 | 0.00 | 35 | 1011.4 |
| 20260504223429 | 23 | 298 | 3.2 | 12.9 | 0.00 | 0.00 | 0.00 | 36 | 1011.4 |
| 20260504223337 | 23 | 228 | 4.8 | 12.9 | 0.00 | 0.00 | 0.00 | 35 | 1011.4 |
| 20260504223240 | 23 | 205 | 4.8 | 12.9 | 0.00 | 0.00 | 0.00 | 35 | 1011.3 |
| 20260504223203 | 23 | 234 | 3.2 | 16.1 | 0.00 | 0.00 | 0.00 | 35 | 1011.4 |
| 20260504222924 | 23 | 141 | 3.2 | 16.1 | 0.00 | 0.00 | 0.00 | 35 | 1011.4 |
| 20260504222821 | 23 | 204 | 1.6 | 16.1 | 0.00 | 0.00 | 0.00 | 35 | 1011.3 |
| 20260504222742 | 23 | 188 | 4.8 | 16.1 | 0.00 | 0.00 | 0.00 | 35 | 1011.3 |
| 20260504222629 | 23 | 173 | 6.4 | 16.1 | 0.00 | 0.00 | 0.00 | 34 | 1011.2 |
| 20260504222540 | 23 | 213 | 4.8 | 16.1 | 0.00 | 0.00 | 0.00 | 34 | 1011.2 |
| 20260504222417 | 23 | 216 | 6.4 | 20.9 | 0.00 | 0.00 | 0.00 | 35 | 1011.1 |
| 20260504222333 | 23 | 217 | 8.0 | 20.9 | 0.00 | 0.00 | 0.00 | 35 | 1011.1 |
| 20260504222229 | 23 | 160 | 4.8 | 20.9 | 0.00 | 0.00 | 0.00 | 35 | 1011.1 |
| 20260504222120 | 23 | 207 | 4.8 | 20.9 | 0.00 | 0.00 | 0.00 | 35 | 1011.1 |
| 20260504222017 | 23 | 188 | 6.4 | 20.9 | 0.00 | 0.00 | 0.00 | 34 | 1011.1 |
| 20260504221934 | 23 | 198 | 4.8 | 20.9 | 0.00 | 0.00 | 0.00 | 34 | 1011.1 |
| 20260504221834 | 23 | 185 | 8.0 | 20.9 | 0.00 | 0.00 | 0.00 | 33 | 1011.1 |
| 20260504221728 | 23 | 167 | 8.0 | 20.9 | 0.00 | 0.00 | 0.00 | 34 | 1011.1 |
| 20260504221619 | 23 | 123 | 4.8 | 16.1 | 0.00 | 0.00 | 0.00 | 34 | 1011.2 |
| 20260504221617 | 23 | 155 | 4.8 | 20.9 | 0.00 | 0.00 | 0.00 | 34 | 1011.1 |
| 20260504221423 | 23 | 223 | 4.8 | 24.1 | 0.00 | 0.00 | 0.00 | 34 | 1011.2 |
| 20260504221318 | 23 | 196 | 4.8 | 24.1 | 0.00 | 0.00 | 0.00 | 33 | 1011.2 |
| 20260504221214 | 23 | 236 | 6.4 | 24.1 | 0.00 | 0.00 | 0.00 | 34 | 1011.2 |
| 20260504221131 | 23 | 240 | 8.0 | 24.1 | 0.00 | 0.00 | 0.00 | 34 | 1011.3 |
| 20260504221038 | 23 | 196 | 6.4 | 24.1 | 0.00 | 0.00 | 0.00 | 33 | 1011.2 |
| 20260504220939 | 23 | 181 | 6.4 | 24.1 | 0.00 | 0.00 | 0.00 | 34 | 1011.2 |
| 20260504220842 | 23 | 178 | 9.7 | 24.1 | 0.00 | 0.00 | 0.00 | 33 | 1011.2 |
| 20260504220743 | 23 | 220 | 9.7 | 24.1 | 0.00 | 0.00 | 0.00 | 33 | 1011.3 |
| 20260504220626 | 23 | 175 | 9.7 | 24.1 | 0.00 | 0.00 | 0.00 | 33 | 1011.3 |
| 20260504220536 | 23 | 240 | 6.4 | 14.5 | 0.00 | 0.00 | 0.00 | 34 | 1011.3 |
| 20260504220445 | 23 | 221 | 4.8 | 17.7 | 0.00 | 0.00 | 0.00 | 34 | 1011.3 |
| 20260504220324 | 23 | 253 | 3.2 | 17.7 | 0.00 | 0.00 | 0.00 | 36 | 1011.3 |
| 20260504220246 | 23 | 115 | 3.2 | 17.7 | 0.00 | 0.00 | 0.00 | 33 | 1011.3 |
| 20260504220149 | 23 | 167 | 4.8 | 17.7 | 0.00 | 0.00 | 0.00 | 34 | 1011.3 |
| 20260504220147 | 23 | 219 | 4.8 | 17.7 | 0.00 | 0.00 | 0.00 | 33 | 1011.3 |
| 20260504215940 | 23 | 187 | 3.2 | 17.7 | 0.00 | 0.00 | 0.00 | 33 | 1011.3 |
| 20260504215824 | 23 | 254 | 6.4 | 17.7 | 0.00 | 0.00 | 0.00 | 34 | 1011.3 |
| 20260504215740 | 23 | 239 | 9.7 | 17.7 | 0.00 | 0.00 | 0.00 | 33 | 1011.3 |
| 20260504215642 | 23 | 221 | 8.0 | 17.7 | 0.00 | 0.00 | 0.00 | 34 | 1011.3 |
| 20260504215533 | 23 | 233 | 3.2 | 14.5 | 0.00 | 0.00 | 0.00 | 34 | 1011.4 |
| 20260504215414 | 23 | 231 | 3.2 | 14.5 | 0.00 | 0.00 | 0.00 | 34 | 1011.3 |
| 20260504215333 | 23 | 197 | 3.2 | 16.1 | 0.00 | 0.00 | 0.00 | 34 | 1011.3 |
| 20260504215238 | 23 | 260 | 6.4 | 16.1 | 0.00 | 0.00 | 0.00 | 34 | 1011.3 |
| 20260504215116 | 23 | 170 | 4.8 | 16.1 | 0.00 | 0.00 | 0.00 | 33 | 1011.3 |
| 20260504215029 | 23 | 161 | 4.8 | 16.1 | 0.00 | 0.00 | 0.00 | 33 | 1011.4 |
| 20260504214930 | 23 | 216 | 6.4 | 16.1 | 0.00 | 0.00 | 0.00 | 33 | 1011.4 |
| 20260504214813 | 23 | 159 | 8.0 | 16.1 | 0.00 | 0.00 | 0.00 | 33 | 1011.4 |
| 20260504214747 | 23 | 232 | 8.0 | 16.1 | 0.00 | 0.00 | 0.00 | 33 | 1011.3 |
| 20260504214642 | 23 | 211 | 8.0 | 16.1 | 0.00 | 0.00 | 0.00 | 32 | 1011.5 |
| 20260504214439 | 23 | 183 | 6.4 | 14.5 | 0.00 | 0.00 | 0.00 | 32 | 1011.4 |
| 20260504214322 | 23 | 234 | 6.4 | 19.3 | 0.00 | 0.00 | 0.00 | 33 | 1011.5 |
| 20260504214227 | 23 | 207 | 8.0 | 19.3 | 0.00 | 0.00 | 0.00 | 33 | 1011.4 |
| 20260504214122 | 23 | 184 | 9.7 | 19.3 | 0.00 | 0.00 | 0.00 | 32 | 1011.4 |
| 20260504214029 | 23 | 205 | 9.7 | 19.3 | 0.00 | 0.00 | 0.00 | 33 | 1011.5 |
| 20260504213941 | 23 | 222 | 8.0 | 19.3 | 0.00 | 0.00 | 0.00 | 32 | 1011.5 |
| 20260504213837 | 23 | 136 | 4.8 | 19.3 | 0.00 | 0.00 | 0.00 | 33 | 1011.5 |
| 20260504213740 | 23 | 225 | 4.8 | 19.3 | 0.00 | 0.00 | 0.00 | 33 | 1011.5 |
| 20260504213619 | 23 | 178 | 6.4 | 19.3 | 0.00 | 0.00 | 0.00 | 33 | 1011.5 |
| 20260504213523 | 23 | 194 | 6.4 | 19.3 | 0.00 | 0.00 | 0.00 | 34 | 1011.6 |
| 20260504213443 | 23 | 213 | 6.4 | 20.9 | 0.00 | 0.00 | 0.00 | 32 | 1011.6 |
| 20260504213344 | 23 | 117 | 6.4 | 17.7 | 0.00 | 0.00 | 0.00 | 34 | 1011.5 |
| 20260504213227 | 23 | 177 | 4.8 | 17.7 | 0.00 | 0.00 | 0.00 | 33 | 1011.4 |
| 20260504213153 | 23 | 172 | 4.8 | 14.5 | 0.00 | 0.00 | 0.00 | 35 | 1011.5 |
| 20260504212920 | 23 | 248 | 3.2 | 12.9 | 0.00 | 0.00 | 0.00 | 33 | 1011.4 |
| 20260504212818 | 23 | 196 | 3.2 | 12.9 | 0.00 | 0.00 | 0.00 | 34 | 1011.5 |
| 20260504212746 | 23 | 250 | 4.8 | 12.9 | 0.00 | 0.00 | 0.00 | 34 | 1011.5 |
| 20260504212640 | 23 | 183 | 6.4 | 12.9 | 0.00 | 0.00 | 0.00 | 35 | 1011.4 |
| 20260504212518 | 23 | 213 | 4.8 | 12.9 | 0.00 | 0.00 | 0.00 | 34 | 1011.4 |
| 20260504212440 | 23 | 210 | 4.8 | 12.9 | 0.00 | 0.00 | 0.00 | 35 | 1011.4 |
| 20260504212345 | 23 | 223 | 4.8 | 12.9 | 0.00 | 0.00 | 0.00 | 35 | 1011.4 |
| 20260504212240 | 23 | 205 | 4.8 | 19.3 | 0.00 | 0.00 | 0.00 | 35 | 1011.5 |
| 20260504212116 | 23 | 250 | 4.8 | 19.3 | 0.00 | 0.00 | 0.00 | 35 | 1011.4 |
| 20260504212044 | 23 | 221 | 3.2 | 24.1 | 0.00 | 0.00 | 0.00 | 34 | 1011.4 |
| 20260504211946 | 23 | 194 | 4.8 | 24.1 | 0.00 | 0.00 | 0.00 | 33 | 1011.4 |
| 20260504211834 | 23 | 180 | 4.8 | 24.1 | 0.00 | 0.00 | 0.00 | 33 | 1011.4 |
| 20260504211743 | 23 | 229 | 4.8 | 24.1 | 0.00 | 0.00 | 0.00 | 34 | 1011.4 |
| 20260504211631 | 23 | 127 | 6.4 | 24.1 | 0.00 | 0.00 | 0.00 | 32 | 1011.3 |
| 20260504211617 | 23 | 196 | 6.4 | 24.1 | 0.00 | 0.00 | 0.00 | 33 | 1011.5 |
| 20260504211426 | 23 | 195 | 8.0 | 24.1 | 0.00 | 0.00 | 0.00 | 33 | 1011.5 |
| 20260504211324 | 23 | 187 | 8.0 | 24.1 | 0.00 | 0.00 | 0.00 | 32 | 1011.5 |
| 20260504211240 | 23 | 163 | 4.8 | 12.9 | 0.00 | 0.00 | 0.00 | 34 | 1011.5 |
| 20260504211144 | 23 | 205 | 4.8 | 12.9 | 0.00 | 0.00 | 0.00 | 34 | 1011.4 |
| 20260504211021 | 23 | 90 | 3.2 | 12.9 | 0.00 | 0.00 | 0.00 | 33 | 1011.4 |
| 20260504210941 | 23 | 223 | 6.4 | 12.9 | 0.00 | 0.00 | 0.00 | 33 | 1011.4 |
| 20260504210830 | 23 | 153 | 6.4 | 22.5 | 0.00 | 0.00 | 0.00 | 32 | 1011.4 |
| 20260504210732 | 24 | 211 | 4.8 | 22.5 | 0.00 | 0.00 | 0.00 | 34 | 1011.5 |
| 20260504210636 | 23 | 210 | 4.8 | 22.5 | 0.00 | 0.00 | 0.00 | 34 | 1011.4 |
| 20260504210518 | 23 | 229 | 4.8 | 22.5 | 0.00 | 0.00 | 0.00 | 33 | 1011.4 |
| 20260504210441 | 23 | 235 | 6.4 | 22.5 | 0.00 | 0.00 | 0.00 | 33 | 1011.5 |
| 20260504210342 | 24 | 148 | 6.4 | 22.5 | 0.00 | 0.00 | 0.00 | 32 | 1011.4 |
| 20260504210240 | 24 | 189 | 6.4 | 22.5 | 0.00 | 0.00 | 0.00 | 32 | 1011.5 |
| 20260504210204 | 24 | 236 | 8.0 | 22.5 | 0.00 | 0.00 | 0.00 | 33 | 1011.3 |
| 20260504210135 | 24 | 140 | 8.0 | 22.5 | 0.00 | 0.00 | 0.00 | 32 | 1011.5 |
| 20260504205919 | 24 | 177 | 6.4 | 16.1 | 0.00 | 0.00 | 0.00 | 32 | 1011.5 |
| 20260504205823 | 24 | 152 | 8.0 | 16.1 | 0.00 | 0.00 | 0.00 | 31 | 1011.4 |
| 20260504205744 | 24 | 188 | 8.0 | 16.1 | 0.00 | 0.00 | 0.00 | 30 | 1011.5 |
| 20260504205635 | 24 | 120 | 8.0 | 16.1 | 0.00 | 0.00 | 0.00 | 31 | 1011.6 |
| 20260504205539 | 24 | 159 | 8.0 | 16.1 | 0.00 | 0.00 | 0.00 | 32 | 1011.6 |
| 20260504205429 | 24 | 279 | 8.0 | 19.3 | 0.00 | 0.00 | 0.00 | 32 | 1011.6 |
| 20260504205319 | 24 | 198 | 8.0 | 16.1 | 0.00 | 0.00 | 0.00 | 32 | 1011.6 |
| 20260504205233 | 24 | 216 | 8.0 | 16.1 | 0.00 | 0.00 | 0.00 | 31 | 1011.6 |
| 20260504205133 | 24 | 202 | 8.0 | 16.1 | 0.00 | 0.00 | 0.00 | 31 | 1011.6 |
| 20260504205022 | 24 | 99 | 6.4 | 16.1 | 0.00 | 0.00 | 0.00 | 31 | 1011.5 |
| 20260504204939 | 24 | 198 | 6.4 | 16.1 | 0.00 | 0.00 | 0.00 | 32 | 1011.5 |
| 20260504204825 | 24 | 209 | 4.8 | 17.7 | 0.00 | 0.00 | 0.00 | 31 | 1011.5 |
| 20260504204742 | 24 | 273 | 4.8 | 16.1 | 0.00 | 0.00 | 0.00 | 32 | 1011.5 |
| 20260504204640 | 24 | 199 | 4.8 | 19.3 | 0.00 | 0.00 | 0.00 | 30 | 1011.5 |
| 20260504204434 | 25 | 196 | 4.8 | 19.3 | 0.00 | 0.00 | 0.00 | 32 | 1011.5 |
| 20260504204337 | 24 | 271 | 3.2 | 19.3 | 0.00 | 0.00 | 0.00 | 31 | 1011.5 |
| 20260504204242 | 24 | 240 | 4.8 | 19.3 | 0.00 | 0.00 | 0.00 | 30 | 1011.6 |
| 20260504204140 | 24 | 163 | 6.4 | 24.1 | 0.00 | 0.00 | 0.00 | 31 | 1011.5 |
| 20260504204039 | 24 | 149 | 8.0 | 24.1 | 0.00 | 0.00 | 0.00 | 31 | 1011.5 |
| 20260504203918 | 24 | 146 | 8.0 | 24.1 | 0.00 | 0.00 | 0.00 | 30 | 1011.5 |
| 20260504203839 | 24 | 194 | 6.4 | 24.1 | 0.00 | 0.00 | 0.00 | 30 | 1011.4 |
| 20260504203732 | 24 | 132 | 1.6 | 24.1 | 0.00 | 0.00 | 0.00 | 33 | 1011.5 |
| 20260504203628 | 24 | 251 | 4.8 | 24.1 | 0.00 | 0.00 | 0.00 | 33 | 1011.5 |
| 20260504203517 | 24 | 194 | 8.0 | 24.1 | 0.00 | 0.00 | 0.00 | 31 | 1011.5 |
| 20260504203422 | 24 | 202 | 9.7 | 24.1 | 0.00 | 0.00 | 0.00 | 31 | 1011.5 |
| 20260504203332 | 24 | 181 | 6.4 | 22.5 | 0.00 | 0.00 | 0.00 | 33 | 1011.4 |
| 20260504203237 | 24 | 244 | 3.2 | 17.7 | 0.00 | 0.00 | 0.00 | 30 | 1011.5 |
| 20260504203135 | 24 | 161 | 3.2 | 17.7 | 0.00 | 0.00 | 0.00 | 31 | 1011.5 |
| 20260504203132 | 24 | 249 | 1.6 | 17.7 | 0.00 | 0.00 | 0.00 | 32 | 1011.4 |
| 20260504202938 | 24 | 252 | 3.2 | 17.7 | 0.00 | 0.00 | 0.00 | 31 | 1011.5 |
| 20260504202817 | 24 | 267 | 4.8 | 17.7 | 0.00 | 0.00 | 0.00 | 30 | 1011.5 |
| 20260504202736 | 24 | 190 | 8.0 | 17.7 | 0.00 | 0.00 | 0.00 | 30 | 1011.4 |
| 20260504202638 | 24 | 198 | 9.7 | 17.7 | 0.00 | 0.00 | 0.00 | 30 | 1011.5 |
| 20260504202535 | 24 | 115 | 8.0 | 17.7 | 0.00 | 0.00 | 0.00 | 29 | 1011.4 |
| 20260504202433 | 24 | 135 | 4.8 | 17.7 | 0.00 | 0.00 | 0.00 | 33 | 1011.6 |
| 20260504202325 | 24 | 160 | 4.8 | 17.7 | 0.00 | 0.00 | 0.00 | 32 | 1011.5 |
| 20260504202220 | 24 | 134 | 4.8 | 17.7 | 0.00 | 0.00 | 0.00 | 31 | 1011.5 |
| 20260504202134 | 24 | 168 | 6.4 | 17.7 | 0.00 | 0.00 | 0.00 | 30 | 1011.5 |
| 20260504202029 | 24 | 228 | 8.0 | 17.7 | 0.00 | 0.00 | 0.00 | 30 | 1011.5 |
| 20260504201930 | 24 | 256 | 6.4 | 17.7 | 0.00 | 0.00 | 0.00 | 30 | 1011.6 |
| 20260504201841 | 24 | 204 | 6.4 | 17.7 | 0.00 | 0.00 | 0.00 | 30 | 1011.6 |
| 20260504201735 | 24 | 177 | 8.0 | 17.7 | 0.00 | 0.00 | 0.00 | 29 | 1011.6 |
| 20260504201632 | 24 | 112 | 8.0 | 17.7 | 0.00 | 0.00 | 0.00 | 29 | 1011.6 |
| 20260504201441 | 24 | 180 | 4.8 | 17.7 | 0.00 | 0.00 | 0.00 | 32 | 1011.6 |
| 20260504201320 | 24 | 237 | 1.6 | 17.7 | 0.00 | 0.00 | 0.00 | 33 | 1011.5 |
| 20260504201232 | 24 | 78 | 3.2 | 17.7 | 0.00 | 0.00 | 0.00 | 34 | 1011.5 |
| 20260504201131 | 23 | 173 | 4.8 | 17.7 | 0.00 | 0.00 | 0.00 | 30 | 1011.5 |
| 20260504201022 | 23 | 189 | 8.0 | 17.7 | 0.00 | 0.00 | 0.00 | 30 | 1011.6 |
| 20260504200940 | 24 | 186 | 11.3 | 17.7 | 0.00 | 0.00 | 0.00 | 29 | 1011.7 |
| 20260504200829 | 24 | 138 | 11.3 | 20.9 | 0.00 | 0.00 | 0.00 | 30 | 1011.7 |
| 20260504200719 | 24 | 146 | 9.7 | 20.9 | 0.00 | 0.00 | 0.00 | 30 | 1011.7 |
| 20260504200629 | 24 | 228 | 9.7 | 20.9 | 0.00 | 0.00 | 0.00 | 31 | 1011.7 |
| 20260504200524 | 24 | 254 | 8.0 | 20.9 | 0.00 | 0.00 | 0.00 | 30 | 1011.6 |
| 20260504200415 | 24 | 246 | 6.4 | 17.7 | 0.00 | 0.00 | 0.00 | 30 | 1011.8 |
| 20260504200328 | 24 | 251 | 6.4 | 17.7 | 0.00 | 0.00 | 0.00 | 31 | 1011.8 |
| 20260504200224 | 24 | 218 | 4.8 | 17.7 | 0.00 | 0.00 | 0.00 | 30 | 1011.8 |
| 20260504200040 | 24 | 142 | 4.8 | 17.7 | 0.00 | 0.00 | 0.00 | 31 | 1011.8 |
| 20260504195941 | 24 | 174 | 4.8 | 17.7 | 0.00 | 0.00 | 0.00 | 29 | 1011.9 |
| 20260504195838 | 24 | 227 | 8.0 | 17.7 | 0.00 | 0.00 | 0.00 | 29 | 1011.8 |
| 20260504195724 | 24 | 144 | 6.4 | 17.7 | 0.00 | 0.00 | 0.00 | 30 | 1011.9 |
| 20260504195632 | 24 | 253 | 6.4 | 12.9 | 0.00 | 0.00 | 0.00 | 34 | 1011.9 |
| 20260504195517 | 24 | 209 | 4.8 | 12.9 | 0.00 | 0.00 | 0.00 | 29 | 1011.9 |
| 20260504195435 | 24 | 162 | 3.2 | 12.9 | 0.00 | 0.00 | 0.00 | 30 | 1012.0 |
| 20260504195342 | 24 | 254 | 4.8 | 12.9 | 0.00 | 0.00 | 0.00 | 30 | 1011.9 |
| 20260504195240 | 24 | 225 | 6.4 | 16.1 | 0.00 | 0.00 | 0.00 | 31 | 1012.0 |
| 20260504195128 | 24 | 194 | 6.4 | 12.9 | 0.00 | 0.00 | 0.00 | 31 | 1012.0 |
| 20260504195028 | 24 | 192 | 6.4 | 12.9 | 0.00 | 0.00 | 0.00 | 31 | 1012.0 |
| 20260504194918 | 24 | 186 | 6.4 | 12.9 | 0.00 | 0.00 | 0.00 | 30 | 1012.0 |
| 20260504194842 | 24 | 295 | 6.4 | 12.9 | 0.00 | 0.00 | 0.00 | 30 | 1012.0 |
| 20260504194730 | 24 | 144 | 6.4 | 12.9 | 0.00 | 0.00 | 0.00 | 29 | 1011.9 |
| 20260504194708 | 24 | 148 | 6.4 | 14.5 | 0.00 | 0.00 | 0.00 | 32 | 1012.0 |
| 20260504194617 | 24 | 148 | 4.8 | 14.5 | 0.00 | 0.00 | 0.00 | 31 | 1011.9 |
| 20260504194422 | 24 | 140 | 3.2 | 14.5 | 0.00 | 0.00 | 0.00 | 30 | 1012.0 |
| 20260504194332 | 24 | 246 | 3.2 | 17.7 | 0.00 | 0.00 | 0.00 | 30 | 1012.0 |
| 20260504194223 | 24 | 148 | 3.2 | 17.7 | 0.00 | 0.00 | 0.00 | 30 | 1011.9 |
| 20260504194131 | 24 | 300 | 6.4 | 17.7 | 0.00 | 0.00 | 0.00 | 28 | 1011.9 |
| 20260504194033 | 24 | 185 | 6.4 | 24.1 | 0.00 | 0.00 | 0.00 | 29 | 1012.0 |
| 20260504193922 | 24 | 346 | 6.4 | 24.1 | 0.00 | 0.00 | 0.00 | 30 | 1011.9 |
| 20260504193837 | 24 | 265 | 6.4 | 24.1 | 0.00 | 0.00 | 0.00 | 30 | 1011.9 |
| 20260504193744 | 24 | 228 | 4.8 | 24.1 | 0.00 | 0.00 | 0.00 | 31 | 1012.0 |
| 20260504193628 | 24 | 130 | 6.4 | 24.1 | 0.00 | 0.00 | 0.00 | 31 | 1012.0 |
| 20260504193519 | 24 | 113 | 6.4 | 24.1 | 0.00 | 0.00 | 0.00 | 30 | 1012.1 |
| 20260504193411 | 24 | 278 | 4.8 | 24.1 | 0.00 | 0.00 | 0.00 | 32 | 1012.1 |
| 20260504193244 | 24 | 184 | 9.7 | 24.1 | 0.00 | 0.00 | 0.00 | 30 | 1012.1 |
| 20260504193138 | 24 | 161 | 9.7 | 24.1 | 0.00 | 0.00 | 0.00 | 31 | 1012.2 |
| 20260504193134 | 23 | 263 | 8.0 | 20.9 | 0.00 | 0.00 | 0.00 | 31 | 1012.1 |
| 20260504192931 | 23 | 274 | 6.4 | 20.9 | 0.00 | 0.00 | 0.00 | 31 | 1012.1 |
| 20260504192837 | 23 | 232 | 4.8 | 20.9 | 0.00 | 0.00 | 0.00 | 30 | 1012.2 |
| 20260504192736 | 24 | 215 | 6.4 | 20.9 | 0.00 | 0.00 | 0.00 | 29 | 1012.2 |
| 20260504192633 | 24 | 202 | 8.0 | 20.9 | 0.00 | 0.00 | 0.00 | 29 | 1012.2 |
| 20260504192528 | 24 | 240 | 6.4 | 20.9 | 0.00 | 0.00 | 0.00 | 29 | 1012.2 |
| 20260504192440 | 25 | 230 | 4.8 | 14.5 | 0.00 | 0.00 | 0.00 | 35 | 1012.3 |
| 20260504192345 | 24 | 227 | 4.8 | 14.5 | 0.00 | 0.00 | 0.00 | 29 | 1012.4 |
| 20260504192234 | 24 | 265 | 6.4 | 14.5 | 0.00 | 0.00 | 0.00 | 32 | 1012.4 |
| 20260504192109 | 24 | 136 | 8.0 | 14.5 | 0.00 | 0.00 | 0.00 | 31 | 1012.3 |
| 20260504192036 | 24 | 286 | 6.4 | 14.5 | 0.00 | 0.00 | 0.00 | 32 | 1012.4 |
| 20260504191934 | 24 | 323 | 4.8 | 14.5 | 0.00 | 0.00 | 0.00 | 32 | 1012.3 |
| 20260504191830 | 24 | 190 | 4.8 | 14.5 | 0.00 | 0.00 | 0.00 | 31 | 1012.3 |
| 20260504191742 | 24 | 232 | 4.8 | 14.5 | 0.00 | 0.00 | 0.00 | 30 | 1012.3 |
| 20260504191623 | 24 | 304 | 4.8 | 17.7 | 0.00 | 0.00 | 0.00 | 34 | 1012.4 |
| 20260504191438 | 24 | 271 | 3.2 | 17.7 | 0.00 | 0.00 | 0.00 | 32 | 1012.5 |
| 20260504191342 | 24 | 216 | 4.8 | 17.7 | 0.00 | 0.00 | 0.00 | 32 | 1012.4 |
| 20260504191232 | 23 | 150 | 6.4 | 17.7 | 0.00 | 0.00 | 0.00 | 30 | 1012.5 |
| 20260504191139 | 23 | 225 | 6.4 | 17.7 | 0.00 | 0.00 | 0.00 | 30 | 1012.6 |
| 20260504191038 | 24 | 121 | 6.4 | 17.7 | 0.00 | 0.00 | 0.00 | 31 | 1012.5 |
| 20260504190924 | 24 | 241 | 9.7 | 17.7 | 0.00 | 0.00 | 0.00 | 30 | 1012.5 |
| 20260504190841 | 24 | 108 | 8.0 | 14.5 | 0.00 | 0.00 | 0.00 | 30 | 1012.6 |
| 20260504190740 | 24 | 225 | 6.4 | 14.5 | 0.00 | 0.00 | 0.00 | 31 | 1012.5 |
| 20260504190628 | 24 | 179 | 6.4 | 16.1 | 0.00 | 0.00 | 0.00 | 31 | 1012.5 |
| 20260504190526 | 24 | 198 | 4.8 | 16.1 | 0.00 | 0.00 | 0.00 | 31 | 1012.5 |
| 20260504190430 | 24 | 212 | 6.4 | 16.1 | 0.00 | 0.00 | 0.00 | 33 | 1012.5 |
| 20260504190341 | 23 | 126 | 6.4 | 17.7 | 0.00 | 0.00 | 0.00 | 33 | 1012.5 |
| 20260504190233 | 23 | 262 | 4.8 | 17.7 | 0.00 | 0.00 | 0.00 | 31 | 1012.5 |
| 20260504190124 | 23 | 220 | 4.8 | 17.7 | 0.00 | 0.00 | 0.00 | 31 | 1012.5 |
| 20260504185924 | 23 | 207 | 4.8 | 17.7 | 0.00 | 0.00 | 0.00 | 30 | 1012.5 |
| 20260504185844 | 24 | 267 | 6.4 | 17.7 | 0.00 | 0.00 | 0.00 | 32 | 1012.7 |
| 20260504185733 | 23 | 179 | 6.4 | 22.5 | 0.00 | 0.00 | 0.00 | 31 | 1012.6 |
| 20260504185630 | 23 | 209 | 8.0 | 22.5 | 0.00 | 0.00 | 0.00 | 32 | 1012.6 |
| 20260504185522 | 23 | 193 | 9.7 | 22.5 | 0.00 | 0.00 | 0.00 | 31 | 1012.5 |
| 20260504185439 | 23 | 244 | 6.4 | 22.5 | 0.00 | 0.00 | 0.00 | 31 | 1012.7 |
| 20260504185320 | 23 | 173 | 8.0 | 22.5 | 0.00 | 0.00 | 0.00 | 32 | 1012.6 |
| 20260504185221 | 23 | 192 | 9.7 | 22.5 | 0.00 | 0.00 | 0.00 | 31 | 1012.5 |
| 20260504185127 | 23 | 228 | 9.7 | 22.5 | 0.00 | 0.00 | 0.00 | 31 | 1012.8 |
| 20260504185028 | 23 | 188 | 9.7 | 22.5 | 0.00 | 0.00 | 0.00 | 30 | 1012.7 |
| 20260504184939 | 24 | 211 | 6.4 | 22.5 | 0.00 | 0.00 | 0.00 | 30 | 1012.7 |
| 20260504184844 | 24 | 197 | 3.2 | 19.3 | 0.00 | 0.00 | 0.00 | 31 | 1012.7 |
| 20260504184720 | 24 | 243 | 3.2 | 19.3 | 0.00 | 0.00 | 0.00 | 30 | 1012.6 |
| 20260504184647 | 24 | 187 | 1.6 | 19.3 | 0.00 | 0.00 | 0.00 | 34 | 1012.6 |
| 20260504184610 | 23 | 144 | 1.6 | 19.3 | 0.00 | 0.00 | 0.00 | 31 | 1012.7 |
| 20260504184433 | 23 | 204 | 3.2 | 19.3 | 0.00 | 0.00 | 0.00 | 31 | 1012.7 |
| 20260504184333 | 23 | 313 | 3.2 | 19.3 | 0.00 | 0.00 | 0.00 | 31 | 1012.7 |
| 20260504184241 | 23 | 271 | 6.4 | 19.3 | 0.00 | 0.00 | 0.00 | 32 | 1012.6 |
| 20260504184145 | 23 | 267 | 9.7 | 19.3 | 0.00 | 0.00 | 0.00 | 31 | 1012.7 |
| 20260504184038 | 23 | 237 | 9.7 | 19.3 | 0.00 | 0.00 | 0.00 | 32 | 1012.6 |
| 20260504183937 | 23 | 298 | 8.0 | 17.7 | 0.00 | 0.00 | 0.00 | 31 | 1012.7 |
| 20260504183826 | 23 | 181 | 8.0 | 17.7 | 0.00 | 0.00 | 0.00 | 30 | 1012.8 |
| 20260504183720 | 23 | 173 | 11.3 | 20.9 | 0.00 | 0.00 | 0.00 | 31 | 1012.8 |
| 20260504183635 | 23 | 256 | 9.7 | 20.9 | 0.00 | 0.00 | 0.00 | 33 | 1012.8 |
| 20260504183526 | 23 | 265 | 8.0 | 20.9 | 0.00 | 0.00 | 0.00 | 30 | 1012.7 |
| 20260504183443 | 23 | 197 | 4.8 | 20.9 | 0.00 | 0.00 | 0.00 | 31 | 1012.9 |
| 20260504183335 | 23 | 300 | 3.2 | 20.9 | 0.00 | 0.00 | 0.00 | 32 | 1012.9 |
| 20260504183228 | 23 | 198 | 3.2 | 20.9 | 0.00 | 0.00 | 0.00 | 33 | 1012.9 |
| 20260504183144 | 23 | 170 | 4.8 | 20.9 | 0.00 | 0.00 | 0.00 | 32 | 1012.9 |
| 20260504182939 | 23 | 194 | 9.7 | 22.5 | 0.00 | 0.00 | 0.00 | 32 | 1013.0 |
| 20260504182833 | 23 | 167 | 8.0 | 16.1 | 0.00 | 0.00 | 0.00 | 30 | 1013.0 |
| 20260504182717 | 23 | 169 | 9.7 | 16.1 | 0.00 | 0.00 | 0.00 | 30 | 1012.9 |
| 20260504182623 | 23 | 159 | 9.7 | 16.1 | 0.00 | 0.00 | 0.00 | 30 | 1013.0 |
| 20260504182550 | 23 | 234 | 6.4 | 19.3 | 0.00 | 0.00 | 0.00 | 33 | 1013.0 |
| 20260504182445 | 23 | 236 | 6.4 | 24.1 | 0.00 | 0.00 | 0.00 | 33 | 1013.0 |
| 20260504182318 | 23 | 225 | 8.0 | 24.1 | 0.00 | 0.00 | 0.00 | 30 | 1013.0 |
| 20260504182242 | 23 | 219 | 6.4 | 24.1 | 0.00 | 0.00 | 0.00 | 35 | 1012.9 |
| 20260504182134 | 23 | 119 | 6.4 | 24.1 | 0.00 | 0.00 | 0.00 | 34 | 1013.0 |
| 20260504182026 | 23 | 219 | 8.0 | 24.1 | 0.00 | 0.00 | 0.00 | 34 | 1013.0 |
| 20260504181918 | 23 | 254 | 8.0 | 24.1 | 0.00 | 0.00 | 0.00 | 32 | 1013.0 |
| 20260504181829 | 23 | 159 | 8.0 | 24.1 | 0.00 | 0.00 | 0.00 | 32 | 1012.9 |
| 20260504181731 | 23 | 233 | 8.0 | 24.1 | 0.00 | 0.00 | 0.00 | 32 | 1012.9 |
| 20260504181655 | 23 | 209 | 9.7 | 24.1 | 0.00 | 0.00 | 0.00 | 31 | 1013.0 |
| 20260504181610 | 23 | 216 | 9.7 | 22.5 | 0.00 | 0.00 | 0.00 | 32 | 1012.9 |
| 20260504181437 | 23 | 239 | 8.0 | 20.9 | 0.00 | 0.00 | 0.00 | 32 | 1013.0 |
| 20260504181328 | 23 | 273 | 6.4 | 20.9 | 0.00 | 0.00 | 0.00 | 32 | 1013.0 |
| 20260504181238 | 23 | 111 | 6.4 | 20.9 | 0.00 | 0.00 | 0.00 | 33 | 1013.0 |
| 20260504181123 | 23 | 119 | 6.4 | 22.5 | 0.00 | 0.00 | 0.00 | 33 | 1013.0 |
| 20260504181025 | 23 | 261 | 4.8 | 22.5 | 0.00 | 0.00 | 0.00 | 31 | 1013.0 |
| 20260504180944 | 23 | 214 | 6.4 | 22.5 | 0.00 | 0.00 | 0.00 | 34 | 1013.0 |
| 20260504180841 | 22 | 213 | 9.7 | 22.5 | 0.00 | 0.00 | 0.00 | 33 | 1013.0 |
| 20260504180733 | 22 | 283 | 9.7 | 22.5 | 0.00 | 0.00 | 0.00 | 32 | 1013.0 |
| 20260504180640 | 23 | 247 | 11.3 | 24.1 | 0.00 | 0.00 | 0.00 | 32 | 1013.2 |
| 20260504180528 | 23 | 227 | 9.7 | 24.1 | 0.00 | 0.00 | 0.00 | 32 | 1013.1 |
| 20260504180431 | 22 | 221 | 9.7 | 24.1 | 0.00 | 0.00 | 0.00 | 34 | 1013.2 |
| 20260504180320 | 22 | 146 | 9.7 | 24.1 | 0.00 | 0.00 | 0.00 | 34 | 1013.1 |
| 20260504180236 | 22 | 132 | 9.7 | 24.1 | 0.00 | 0.00 | 0.00 | 33 | 1013.1 |
| 20260504180216 | 22 | 219 | 9.7 | 24.1 | 0.00 | 0.00 | 0.00 | 32 | 1013.1 |
| 20260504180101 | 22 | 248 | 9.7 | 24.1 | 0.00 | 0.00 | 0.00 | 32 | 1013.2 |
| 20260504175938 | 22 | 161 | 11.3 | 24.1 | 0.00 | 0.00 | 0.00 | 31 | 1013.1 |
| 20260504175820 | 23 | 140 | 9.7 | 24.1 | 0.00 | 0.00 | 0.00 | 33 | 1013.1 |
| 20260504175741 | 23 | 250 | 9.7 | 24.1 | 0.00 | 0.00 | 0.00 | 32 | 1013.3 |
| 20260504175638 | 23 | 104 | 9.7 | 24.1 | 0.00 | 0.00 | 0.00 | 32 | 1013.2 |
| 20260504175544 | 23 | 232 | 8.0 | 24.1 | 0.00 | 0.00 | 0.00 | 32 | 1013.3 |
| 20260504175426 | 23 | 227 | 6.4 | 17.7 | 0.00 | 0.00 | 0.00 | 35 | 1013.4 |
| 20260504175344 | 22 | 246 | 6.4 | 17.7 | 0.00 | 0.00 | 0.00 | 34 | 1013.4 |
| 20260504175228 | 22 | 128 | 4.8 | 17.7 | 0.00 | 0.00 | 0.00 | 34 | 1013.3 |
| 20260504175118 | 22 | 178 | 4.8 | 17.7 | 0.00 | 0.00 | 0.00 | 32 | 1013.2 |
| 20260504175024 | 22 | 223 | 6.4 | 17.7 | 0.00 | 0.00 | 0.00 | 32 | 1013.3 |
| 20260504174935 | 22 | 248 | 4.8 | 20.9 | 0.00 | 0.00 | 0.00 | 32 | 1013.4 |
| 20260504174849 | 22 | 239 | 6.4 | 20.9 | 0.00 | 0.00 | 0.00 | 33 | 1013.4 |
| 20260504174738 | 22 | 198 | 6.4 | 20.9 | 0.00 | 0.00 | 0.00 | 32 | 1013.4 |
| 20260504174653 | 22 | 277 | 4.8 | 20.9 | 0.00 | 0.00 | 0.00 | 32 | 1013.4 |
| 20260504174555 | 22 | 242 | 6.4 | 20.9 | 0.00 | 0.00 | 0.00 | 34 | 1013.3 |
| 20260504174444 | 23 | 145 | 8.0 | 20.9 | 0.00 | 0.00 | 0.00 | 32 | 1013.3 |
| 20260504174317 | 23 | 190 | 11.3 | 20.9 | 0.00 | 0.00 | 0.00 | 33 | 1013.3 |
| 20260504174228 | 23 | 208 | 9.7 | 20.9 | 0.00 | 0.00 | 0.00 | 32 | 1013.2 |
| 20260504174124 | 23 | 177 | 6.4 | 22.5 | 0.00 | 0.00 | 0.00 | 35 | 1013.1 |
| 20260504174021 | 23 | 183 | 4.8 | 17.7 | 0.00 | 0.00 | 0.00 | 33 | 1013.2 |
| 20260504173927 | 23 | 211 | 6.4 | 17.7 | 0.00 | 0.00 | 0.00 | 34 | 1013.2 |
| 20260504173832 | 23 | 148 | 8.0 | 17.7 | 0.00 | 0.00 | 0.00 | 32 | 1013.3 |
| 20260504173709 | 23 | 240 | 6.4 | 17.7 | 0.00 | 0.00 | 0.00 | 33 | 1013.2 |
| 20260504173645 | 23 | 191 | 6.4 | 16.1 | 0.00 | 0.00 | 0.00 | 33 | 1013.2 |
| 20260504173544 | 22 | 135 | 6.4 | 16.1 | 0.00 | 0.00 | 0.00 | 33 | 1013.3 |
| 20260504173421 | 22 | 269 | 4.8 | 14.5 | 0.00 | 0.00 | 0.00 | 36 | 1013.4 |
| 20260504173341 | 22 | 232 | 6.4 | 14.5 | 0.00 | 0.00 | 0.00 | 35 | 1013.4 |
| 20260504173233 | 22 | 234 | 6.4 | 14.5 | 0.00 | 0.00 | 0.00 | 32 | 1013.4 |
| 20260504173136 | 22 | 218 | 3.2 | 16.1 | 0.00 | 0.00 | 0.00 | 35 | 1013.4 |
| 20260504172939 | 22 | 296 | 6.4 | 16.1 | 0.00 | 0.00 | 0.00 | 33 | 1013.4 |
| 20260504172836 | 22 | 187 | 4.8 | 16.1 | 0.00 | 0.00 | 0.00 | 35 | 1013.6 |
| 20260504172739 | 22 | 320 | 4.8 | 16.1 | 0.00 | 0.00 | 0.00 | 34 | 1013.4 |
| 20260504172618 | 22 | 281 | 6.4 | 16.1 | 0.00 | 0.00 | 0.00 | 33 | 1013.5 |
| 20260504172536 | 22 | 360 | 8.0 | 16.1 | 0.00 | 0.00 | 0.00 | 33 | 1013.4 |
| 20260504172440 | 22 | 208 | 6.4 | 16.1 | 0.00 | 0.00 | 0.00 | 33 | 1013.6 |
| 20260504172323 | 22 | 240 | 4.8 | 16.1 | 0.00 | 0.00 | 0.00 | 35 | 1013.6 |
| 20260504172220 | 22 | 257 | 4.8 | 16.1 | 0.00 | 0.00 | 0.00 | 35 | 1013.6 |
| 20260504172117 | 22 | 236 | 6.4 | 16.1 | 0.00 | 0.00 | 0.00 | 34 | 1013.7 |
| 20260504172033 | 22 | 214 | 6.4 | 16.1 | 0.00 | 0.00 | 0.00 | 34 | 1013.8 |
| 20260504171933 | 22 | 245 | 6.4 | 16.1 | 0.00 | 0.00 | 0.00 | 37 | 1013.7 |
| 20260504171826 | 22 | 247 | 6.4 | 16.1 | 0.00 | 0.00 | 0.00 | 34 | 1013.8 |
| 20260504171728 | 22 | 202 | 6.4 | 16.1 | 0.00 | 0.00 | 0.00 | 36 | 1013.8 |
| 20260504171659 | 22 | 258 | 4.8 | 16.1 | 0.00 | 0.00 | 0.00 | 35 | 1013.8 |
| 20260504171639 | 22 | 217 | 6.4 | 16.1 | 0.00 | 0.00 | 0.00 | 35 | 1013.8 |
| 20260504171421 | 22 | 288 | 4.8 | 16.1 | 0.00 | 0.00 | 0.00 | 35 | 1013.9 |
| 20260504171342 | 22 | 205 | 3.2 | 17.7 | 0.00 | 0.00 | 0.00 | 34 | 1013.9 |
| 20260504171224 | 22 | 237 | 4.8 | 17.7 | 0.00 | 0.00 | 0.00 | 36 | 1013.9 |
| 20260504171146 | 22 | 209 | 3.2 | 17.7 | 0.00 | 0.00 | 0.00 | 34 | 1013.9 |
| 20260504171035 | 22 | 150 | 3.2 | 17.7 | 0.00 | 0.00 | 0.00 | 34 | 1013.9 |
| 20260504170921 | 21 | 169 | 4.8 | 17.7 | 0.00 | 0.00 | 0.00 | 34 | 1013.9 |
| 20260504170845 | 22 | 94 | 6.4 | 17.7 | 0.00 | 0.00 | 0.00 | 36 | 1013.9 |
| 20260504170721 | 22 | 243 | 9.7 | 17.7 | 0.00 | 0.00 | 0.00 | 33 | 1014.0 |
| 20260504170642 | 22 | 228 | 6.4 | 17.7 | 0.00 | 0.00 | 0.00 | 36 | 1013.9 |
| 20260504170520 | 21 | 248 | 4.8 | 16.1 | 0.00 | 0.00 | 0.00 | 34 | 1014.0 |
| 20260504170419 | 21 | 153 | 6.4 | 16.1 | 0.00 | 0.00 | 0.00 | 35 | 1014.1 |
| 20260504170317 | 21 | 148 | 6.4 | 14.5 | 0.00 | 0.00 | 0.00 | 34 | 1014.1 |
| 20260504170240 | 22 | 194 | 6.4 | 14.5 | 0.00 | 0.00 | 0.00 | 35 | 1014.1 |
| 20260504170207 | 22 | 232 | 4.8 | 12.9 | 0.00 | 0.00 | 0.00 | 36 | 1014.0 |
| 20260504170140 | 22 | 257 | 3.2 | 14.5 | 0.00 | 0.00 | 0.00 | 34 | 1014.1 |
| 20260504160431 | 21 | 195 | 3.2 | 11.3 | 0.00 | 0.00 | 0.00 | 34 | 1014.9 |
| 20260504160325 | 21 | 165 | 1.6 | 12.9 | 0.00 | 0.00 | 0.00 | 37 | 1014.8 |
| 20260504160242 | 21 | 19 | 3.2 | 12.9 | 0.00 | 0.00 | 0.00 | 34 | 1014.9 |
| 20260504160142 | 21 | 211 | 4.8 | 14.5 | 0.00 | 0.00 | 0.00 | 36 | 1014.8 |
| 20260504151120 | 19 | 166 | 6.4 | 11.3 | 0.00 | 0.00 | 0.00 | 37 | 1015.2 |
| 20260504151034 | 19 | 257 | 4.8 | 11.3 | 0.00 | 0.00 | 0.00 | 38 | 1015.1 |
| 20260504150935 | 19 | 159 | 3.2 | 11.3 | 0.00 | 0.00 | 0.00 | 37 | 1015.1 |
| 20260504150836 | 19 | 242 | 4.8 | 11.3 | 0.00 | 0.00 | 0.00 | 37 | 1015.1 |
| 20260504150728 | 19 | 198 | 3.2 | 12.9 | 0.00 | 0.00 | 0.00 | 37 | 1015.2 |
| 20260504150640 | 19 | 171 | 4.8 | 12.9 | 0.00 | 0.00 | 0.00 | 39 | 1015.3 |
| 20260504150525 | 19 | 263 | 4.8 | 12.9 | 0.00 | 0.00 | 0.00 | 37 | 1015.2 |
| 20260504150427 | 19 | 352 | 1.6 | 12.9 | 0.00 | 0.00 | 0.00 | 43 | 1015.3 |
| 20260504150340 | 18 | 236 | 3.2 | 12.9 | 0.00 | 0.00 | 0.00 | 40 | 1015.3 |
| 20260504150220 | 18 | 271 | 3.2 | 12.9 | 0.00 | 0.00 | 0.00 | 38 | 1015.3 |
| 20260504150136 | 18 | 281 | 3.2 | 12.9 | 0.00 | 0.00 | 0.00 | 41 | 1015.3 |
| 20260504141219 | 17 | 184 | 3.2 | 11.3 | 0.00 | 0.00 | 0.00 | 49 | 1015.3 |
| 20260504141134 | 16 | 153 | 3.2 | 11.3 | 0.00 | 0.00 | 0.00 | 46 | 1015.3 |
| 20260504141037 | 16 | 134 | 3.2 | 11.3 | 0.00 | 0.00 | 0.00 | 45 | 1015.3 |
| 20260504140927 | 17 | 161 | 3.2 | 11.3 | 0.00 | 0.00 | 0.00 | 46 | 1015.3 |
| 20260504140827 | 17 | 183 | 3.2 | 11.3 | 0.00 | 0.00 | 0.00 | 46 | 1015.3 |
| 20260504140734 | 17 | 192 | 3.2 | 11.3 | 0.00 | 0.00 | 0.00 | 50 | 1015.3 |
| 20260504140633 | 17 | 260 | 3.2 | 11.3 | 0.00 | 0.00 | 0.00 | 48 | 1015.3 |
| 20260504140523 | 17 | 182 | 3.2 | 11.3 | 0.00 | 0.00 | 0.00 | 45 | 1015.2 |
| 20260504140426 | 17 | 204 | 3.2 | 11.3 | 0.00 | 0.00 | 0.00 | 46 | 1015.2 |
| 20260504140326 | 17 | 328 | 1.6 | 8.0 | 0.00 | 0.00 | 0.00 | 48 | 1015.3 |
| 20260504140250 | 16 | 272 | 1.6 | 8.0 | 0.00 | 0.00 | 0.00 | 47 | 1015.3 |
| 20260504140130 | 16 | 337 | 1.6 | 8.0 | 0.00 | 0.00 | 0.00 | 47 | 1015.3 |
| 20260504140126 | 16 | 296 | 3.2 | 8.0 | 0.00 | 0.00 | 0.00 | 47 | 1015.3 |
| 20260504130711 | 15 | 236 | 3.2 | 12.9 | 0.00 | 0.00 | 0.00 | 52 | 1015.4 |
| 20260504130636 | 15 | 256 | 6.4 | 12.9 | 0.00 | 0.00 | 0.00 | 50 | 1015.4 |
| 20260504130521 | 15 | 173 | 6.4 | 12.9 | 0.00 | 0.00 | 0.00 | 51 | 1015.5 |
| 20260504130438 | 15 | 216 | 3.2 | 11.3 | 0.00 | 0.00 | 0.00 | 53 | 1015.5 |
| 20260504130348 | 15 | 215 | 3.2 | 17.7 | 0.00 | 0.00 | 0.00 | 52 | 1015.5 |
| 20260504130231 | 14 | 209 | 4.8 | 17.7 | 0.00 | 0.00 | 0.00 | 51 | 1015.5 |
| 20260504130201 | 14 | 198 | 4.8 | 17.7 | 0.00 | 0.00 | 0.00 | 51 | 1015.4 |
| 20260504130110 | 14 | 224 | 4.8 | 17.7 | 0.00 | 0.00 | 0.00 | 52 | 1015.4 |
| 20260504120235 | 12 | 200 | 1.6 | 11.3 | 0.00 | 0.00 | 0.00 | 60 | 1016.1 |
| 20260504120128 | 12 | 216 | 3.2 | 11.3 | 0.00 | 0.00 | 0.00 | 59 | 1016.1 |
| 20260504120115 | 12 | 186 | 3.2 | 11.3 | 0.00 | 0.00 | 0.00 | 60 | 1016.1 |
| 20260504110629 | 10 | 178 | 0.0 | 3.2 | 0.00 | 0.00 | 0.00 | 65 | 1016.2 |
| 20260504110526 | 10 | 178 | 0.0 | 4.8 | 0.00 | 0.00 | 0.00 | 66 | 1016.3 |
| 20260504110433 | 10 | 178 | 0.0 | 4.8 | 0.00 | 0.00 | 0.00 | 65 | 1016.2 |
| 20260504110317 | 10 | 178 | 0.0 | 4.8 | 0.00 | 0.00 | 0.00 | 65 | 1016.3 |
| 20260504110228 | 10 | 178 | 0.0 | 4.8 | 0.00 | 0.00 | 0.00 | 65 | 1016.2 |
| 20260504110151 | 10 | 178 | 0.0 | 4.8 | 0.00 | 0.00 | 0.00 | 65 | 1016.2 |
| 20260504110131 | 10 | 178 | 0.0 | 4.8 | 0.00 | 0.00 | 0.00 | 65 | 1016.2 |
| 20260504100536 | 10 | 162 | 1.6 | 9.7 | 0.00 | 0.00 | 0.00 | 65 | 1016.3 |
| 20260504100448 | 10 | 161 | 1.6 | 9.7 | 0.00 | 0.00 | 0.00 | 65 | 1016.3 |
| 20260504100321 | 10 | 189 | 1.6 | 9.7 | 0.00 | 0.00 | 0.00 | 65 | 1016.3 |
| 20260504100247 | 10 | 232 | 1.6 | 9.7 | 0.00 | 0.00 | 0.00 | 65 | 1016.3 |
| 20260504100143 | 10 | 171 | 1.6 | 9.7 | 0.00 | 0.00 | 0.00 | 65 | 1016.3 |
| 20260504090129 | 10 | 175 | 0.0 | 4.8 | 0.00 | 0.00 | 0.00 | 69 | 1016.3 |
| 20260504081929 | 10 | 170 | 0.0 | 3.2 | 0.00 | 0.00 | 0.00 | 69 | 1016.2 |
| 20260504081831 | 10 | 170 | 0.0 | 3.2 | 0.00 | 0.00 | 0.00 | 69 | 1016.2 |
| 20260504081740 | 10 | 170 | 0.0 | 3.2 | 0.00 | 0.00 | 0.00 | 69 | 1016.2 |
| 20260504081709 | 10 | 170 | 0.0 | 3.2 | 0.00 | 0.00 | 0.00 | 70 | 1016.2 |
| 20260504081639 | 10 | 170 | 0.0 | 3.2 | 0.00 | 0.00 | 0.00 | 70 | 1016.2 |
| 20260504081449 | 10 | 160 | 0.0 | 4.8 | 0.00 | 0.00 | 0.00 | 70 | 1016.2 |
| 20260504081324 | 10 | 160 | 0.0 | 4.8 | 0.00 | 0.00 | 0.00 | 70 | 1016.2 |
| 20260504081221 | 10 | 160 | 0.0 | 4.8 | 0.00 | 0.00 | 0.00 | 70 | 1016.1 |
| 20260504081139 | 10 | 161 | 0.0 | 4.8 | 0.00 | 0.00 | 0.00 | 70 | 1016.2 |
| 20260504081044 | 10 | 148 | 0.0 | 4.8 | 0.00 | 0.00 | 0.00 | 70 | 1016.2 |
| 20260504080926 | 10 | 148 | 0.0 | 4.8 | 0.00 | 0.00 | 0.00 | 70 | 1016.2 |
| 20260504080838 | 10 | 148 | 0.0 | 4.8 | 0.00 | 0.00 | 0.00 | 70 | 1016.2 |
| 20260504080726 | 10 | 148 | 0.0 | 4.8 | 0.00 | 0.00 | 0.00 | 70 | 1016.2 |
| 20260504080627 | 10 | 148 | 0.0 | 4.8 | 0.00 | 0.00 | 0.00 | 70 | 1016.2 |
| 20260504080532 | 10 | 211 | 0.0 | 4.8 | 0.00 | 0.00 | 0.00 | 70 | 1016.2 |
| 20260504080423 | 10 | 211 | 0.0 | 4.8 | 0.00 | 0.00 | 0.00 | 70 | 1016.2 |
| 20260504080321 | 10 | 232 | 1.6 | 4.8 | 0.00 | 0.00 | 0.00 | 70 | 1016.3 |
| 20260504080225 | 10 | 158 | 1.6 | 3.2 | 0.00 | 0.00 | 0.00 | 70 | 1016.2 |
| 20260504080143 | 10 | 164 | 0.0 | 3.2 | 0.00 | 0.00 | 0.00 | 70 | 1016.2 |
| 20260504070324 | 8 | 169 | 0.0 | 3.2 | 0.00 | 0.00 | 0.00 | 76 | 1016.5 |
| 20260504070248 | 8 | 169 | 0.0 | 3.2 | 0.00 | 0.00 | 0.00 | 76 | 1016.6 |
| 20260504070245 | 8 | 169 | 0.0 | 3.2 | 0.00 | 0.00 | 0.00 | 76 | 1016.6 |
| 20260504070128 | 8 | 169 | 0.0 | 3.2 | 0.00 | 0.00 | 0.00 | 75 | 1016.6 |
| 20260504060138 | 7 | 166 | 0.0 | 3.2 | 0.00 | 0.00 | 0.00 | 76 | 1016.6 |
| 20260504050742 | 7 | 164 | 0.0 | 3.2 | 0.00 | 0.00 | 0.00 | 74 | 1016.7 |
| 20260504050626 | 7 | 163 | 0.0 | 6.4 | 0.00 | 0.00 | 0.00 | 74 | 1016.7 |
| 20260504050525 | 8 | 163 | 0.0 | 6.4 | 0.00 | 0.00 | 0.00 | 74 | 1016.7 |
| 20260504050427 | 8 | 163 | 0.0 | 6.4 | 0.00 | 0.00 | 0.00 | 74 | 1016.7 |
| 20260504050324 | 8 | 163 | 0.0 | 6.4 | 0.00 | 0.00 | 0.00 | 74 | 1016.7 |
| 20260504050253 | 8 | 163 | 1.6 | 6.4 | 0.00 | 0.00 | 0.00 | 74 | 1016.6 |
| 20260504050203 | 8 | 189 | 0.0 | 6.4 | 0.00 | 0.00 | 0.00 | 74 | 1016.6 |
| 20260504050129 | 8 | 189 | 0.0 | 6.4 | 0.00 | 0.00 | 0.00 | 73 | 1016.7 |
| 20260504045943 | 8 | 189 | 1.6 | 6.4 | 0.00 | 0.00 | 0.00 | 73 | 1016.7 |
| 20260504045827 | 8 | 180 | 1.6 | 6.4 | 0.00 | 0.00 | 0.00 | 74 | 1016.7 |
| 20260504045735 | 7 | 205 | 1.6 | 8.0 | 0.00 | 0.00 | 0.00 | 74 | 1016.7 |
| 20260504045635 | 7 | 158 | 1.6 | 8.0 | 0.00 | 0.00 | 0.00 | 75 | 1016.7 |
| 20260504045546 | 7 | 185 | 0.0 | 4.8 | 0.00 | 0.00 | 0.00 | 74 | 1016.6 |
| 20260504045424 | 7 | 178 | 1.6 | 4.8 | 0.00 | 0.00 | 0.00 | 75 | 1016.6 |
| 20260504045333 | 7 | 178 | 1.6 | 4.8 | 0.00 | 0.00 | 0.00 | 75 | 1016.7 |
| 20260504045231 | 7 | 175 | 0.0 | 4.8 | 0.00 | 0.00 | 0.00 | 76 | 1016.7 |
| 20260504045117 | 7 | 175 | 0.0 | 4.8 | 0.00 | 0.00 | 0.00 | 76 | 1016.7 |
| 20260504045030 | 7 | 175 | 1.6 | 4.8 | 0.00 | 0.00 | 0.00 | 76 | 1016.8 |
| 20260504044933 | 7 | 175 | 1.6 | 4.8 | 0.00 | 0.00 | 0.00 | 77 | 1016.5 |
| 20260504044837 | 7 | 160 | 0.0 | 3.2 | 0.00 | 0.00 | 0.00 | 77 | 1016.7 |
| 20260504044725 | 6 | 170 | 0.0 | 3.2 | 0.00 | 0.00 | 0.00 | 78 | 1016.6 |
| 20260504044535 | 6 | 155 | 0.0 | 3.2 | 0.00 | 0.00 | 0.00 | 79 | 1016.6 |
| 20260504044337 | 6 | 155 | 1.6 | 3.2 | 0.00 | 0.00 | 0.00 | 79 | 1016.7 |
| 20260504044223 | 6 | 155 | 1.6 | 3.2 | 0.00 | 0.00 | 0.00 | 79 | 1016.8 |
| 20260504044121 | 6 | 155 | 1.6 | 3.2 | 0.00 | 0.00 | 0.00 | 79 | 1016.7 |
| 20260504044026 | 6 | 155 | 1.6 | 3.2 | 0.00 | 0.00 | 0.00 | 79 | 1016.8 |
| 20260504043930 | 6 | 155 | 1.6 | 3.2 | 0.00 | 0.00 | 0.00 | 78 | 1016.9 |
| 20260504043827 | 6 | 155 | 0.0 | 3.2 | 0.00 | 0.00 | 0.00 | 78 | 1016.8 |
| 20260504043740 | 6 | 155 | 0.0 | 4.8 | 0.00 | 0.00 | 0.00 | 78 | 1016.9 |
| 20260504043635 | 6 | 155 | 0.0 | 4.8 | 0.00 | 0.00 | 0.00 | 78 | 1016.7 |
| 20260504043530 | 6 | 155 | 0.0 | 4.8 | 0.00 | 0.00 | 0.00 | 78 | 1016.8 |
| 20260504043428 | 6 | 155 | 0.0 | 4.8 | 0.00 | 0.00 | 0.00 | 78 | 1016.7 |
| 20260504043314 | 6 | 155 | 0.0 | 4.8 | 0.00 | 0.00 | 0.00 | 79 | 1016.8 |
| 20260504043240 | 6 | 155 | 0.0 | 4.8 | 0.00 | 0.00 | 0.00 | 79 | 1016.8 |
| 20260504043147 | 6 | 155 | 1.6 | 4.8 | 0.00 | 0.00 | 0.00 | 79 | 1016.7 |
| 20260504042937 | 6 | 155 | 3.2 | 4.8 | 0.00 | 0.00 | 0.00 | 79 | 1016.8 |
| 20260504042819 | 6 | 157 | 3.2 | 4.8 | 0.00 | 0.00 | 0.00 | 79 | 1016.9 |
| 20260504042723 | 6 | 157 | 1.6 | 4.8 | 0.00 | 0.00 | 0.00 | 79 | 1016.8 |
| 20260504042638 | 6 | 157 | 3.2 | 4.8 | 0.00 | 0.00 | 0.00 | 79 | 1016.8 |
| 20260504042537 | 6 | 157 | 1.6 | 3.2 | 0.00 | 0.00 | 0.00 | 79 | 1016.8 |
| 20260504042429 | 6 | 157 | 1.6 | 3.2 | 0.00 | 0.00 | 0.00 | 78 | 1016.8 |
| 20260504042338 | 6 | 157 | 1.6 | 3.2 | 0.00 | 0.00 | 0.00 | 78 | 1016.8 |
| 20260504042207 | 6 | 157 | 1.6 | 3.2 | 0.00 | 0.00 | 0.00 | 78 | 1016.7 |
| 20260504042135 | 6 | 157 | 1.6 | 3.2 | 0.00 | 0.00 | 0.00 | 78 | 1016.7 |
| 20260504042026 | 6 | 157 | 0.0 | 3.2 | 0.00 | 0.00 | 0.00 | 78 | 1016.8 |
| 20260504041918 | 6 | 157 | 0.0 | 3.2 | 0.00 | 0.00 | 0.00 | 78 | 1016.8 |
| 20260504041841 | 6 | 157 | 0.0 | 3.2 | 0.00 | 0.00 | 0.00 | 78 | 1016.8 |
| 20260504041747 | 6 | 157 | 0.0 | 3.2 | 0.00 | 0.00 | 0.00 | 78 | 1016.7 |